Time,TemperatureF,DewpointF,PressureIn,WindDirection,WindDirectionDegrees,WindSpeedMPH,WindSpeedGustMPH,Humidity,HourlyPrecipIn,Conditions,Clouds,dailyrainin,SoftwareType,DateUTC
2013-05-14 00:02:00,61.0,49.1,29.98,SSW,197,1.2,0.0,65,0.00,SCT,,0.00,WeatherDisplay:10.37,2013-05-14 07:02:00,
2013-05-14 00:03:00,61.0,49.1,29.98,South,173,1.0,1.0,65,0.00,SCT,,0.00,WeatherDisplay:10.37,2013-05-14 07:03:00,
2013-05-14 00:04:00,61.0,49.1,29.98,East,96,3.0,3.0,65,0.00,SCT,,0.00,WeatherDisplay:10.37,2013-05-14 07:04:00,
2013-05-14 00:07:00,60.9,48.6,29.99,East,79,1.2,1.2,64,0.00,SCT,,0.00,WeatherDisplay:10.37,2013-05-14 07:07:00,
2013-05-14 00:08:00,60.9,48.6,29.99,East,79,2.3,2.3,64,0.00,SCT,,0.00,WeatherDisplay:10.37,2013-05-14 07:08:00,
2013-05-14 00:09:00,60.9,48.6,29.99,East,79,1.2,1.2,64,0.00,SCT,,0.00,WeatherDisplay:10.37,2013-05-14 07:09:00,
2013-05-14 00:11:00,60.9,48.2,29.99,SE,139,3.5,0.0,63,0.00,SCT,,0.00,WeatherDisplay:10.37,2013-05-14 07:11:00,
2013-05-14 00:13:00,61.0,48.7,29.99,SW,220,1.2,1.2,64,0.00,SCT,,0.00,WeatherDisplay:10.37,2013-05-14 07:13:00,
2013-05-14 00:14:00,61.0,48.3,29.99,SE,127,2.3,2.3,63,0.00,SCT,,0.00,WeatherDisplay:10.37,2013-05-14 07:14:00,
2013-05-14 00:16:00,60.9,48.2,29.99,SSE,163,2.0,2.0,63,0.00,SCT,,0.00,WeatherDisplay:10.37,2013-05-14 07:16:00,
2013-05-14 00:17:00,60.9,48.2,29.99,SE,132,4.6,4.6,63,0.00,SCT,,0.00,WeatherDisplay:10.37,2013-05-14 07:17:00,
2013-05-14 00:19:00,60.9,48.2,29.99,South,181,2.0,2.0,63,0.00,SCT,,0.00,WeatherDisplay:10.37,2013-05-14 07:19:00,
2013-05-14 00:20:00,61.0,48.3,29.99,South,188,1.2,1.2,63,0.00,SCT,,0.00,WeatherDisplay:10.37,2013-05-14 07:20:00,
2013-05-14 00:21:00,60.9,48.2,29.99,SE,126,3.0,3.0,63,0.00,SCT,,0.00,WeatherDisplay:10.37,2013-05-14 07:21:00,
2013-05-14 00:23:00,60.9,48.6,29.99,South,183,3.5,3.5,64,0.00,SCT,,0.00,WeatherDisplay:10.37,2013-05-14 07:23:00,
2013-05-14 00:24:00,60.8,49.0,29.99,SE,126,3.0,3.0,65,0.00,SCT,,0.00,WeatherDisplay:10.37,2013-05-14 07:24:00,
2013-05-14 00:25:00,60.8,49.0,29.99,SE,128,3.5,3.5,65,0.00,SCT,,0.00,WeatherDisplay:10.37,2013-05-14 07:25:00,
2013-05-14 00:26:00,60.8,49.0,29.99,East,99,1.2,1.2,65,0.00,SCT,,0.00,WeatherDisplay:10.37,2013-05-14 07:26:00,
2013-05-14 00:28:00,60.8,49.0,29.99,East,99,1.2,0.0,65,0.00,SCT,,0.00,WeatherDisplay:10.37,2013-05-14 07:28:00,
2013-05-14 00:29:00,60.8,49.0,29.99,East,83,1.2,1.2,65,0.00,SCT,,0.00,WeatherDisplay:10.37,2013-05-14 07:29:00,
2013-05-14 00:30:00,60.7,48.9,29.99,SE,124,2.0,2.0,65,0.00,SCT,,0.00,WeatherDisplay:10.37,2013-05-14 07:30:00,
2013-05-14 00:31:00,60.7,48.9,29.99,SE,143,2.0,2.0,65,0.00,SCT,,0.00,WeatherDisplay:10.37,2013-05-14 07:31:00,
2013-05-14 00:32:00,60.7,48.9,29.99,South,170,2.3,2.3,65,0.00,SCT,,0.00,WeatherDisplay:10.37,2013-05-14 07:32:00,
2013-05-14 00:34:00,60.7,48.9,29.99,ESE,123,3.5,3.5,65,0.00,SCT,,0.00,WeatherDisplay:10.37,2013-05-14 07:34:00,
2013-05-14 00:35:00,60.7,48.9,29.99,ESE,122,0.0,4.0,65,0.00,SCT,,0.00,WeatherDisplay:10.37,2013-05-14 07:35:00,
2013-05-14 00:36:00,60.6,48.8,29.99,SE,124,2.3,2.3,65,0.00,SCT,,0.00,WeatherDisplay:10.37,2013-05-14 07:36:00,
2013-05-14 00:37:00,60.6,48.8,29.99,SE,124,1.2,0.0,65,0.00,SCT,,0.00,WeatherDisplay:10.37,2013-05-14 07:37:00,
2013-05-14 00:40:00,60.4,49.0,29.99,South,187,1.2,1.2,66,0.00,SCT,,0.00,WeatherDisplay:10.37,2013-05-14 07:40:00,
2013-05-14 00:42:00,60.3,48.9,29.99,South,187,0.0,0.0,66,0.00,SCT,,0.00,WeatherDisplay:10.37,2013-05-14 07:42:00,
2013-05-14 00:43:00,60.3,48.9,29.99,South,187,0.0,0.0,66,0.00,SCT,,0.00,WeatherDisplay:10.37,2013-05-14 07:43:00,
2013-05-14 00:45:00,60.2,48.8,29.99,South,187,1.2,0.0,66,0.00,SCT,,0.00,WeatherDisplay:10.37,2013-05-14 07:45:00,
2013-05-14 00:47:00,60.2,48.8,29.99,South,187,0.0,0.0,66,0.00,SCT,,0.00,WeatherDisplay:10.37,2013-05-14 07:47:00,
2013-05-14 00:48:00,60.2,48.8,29.99,South,187,0.0,0.0,66,0.00,SCT,,0.00,WeatherDisplay:10.37,2013-05-14 07:48:00,
2013-05-14 00:50:00,60.1,48.7,29.99,South,187,0.0,0.0,66,0.00,SCT,,0.00,WeatherDisplay:10.37,2013-05-14 07:50:00,
2013-05-14 00:52:00,59.9,48.9,29.99,South,187,0.0,0.0,67,0.00,SCT,,0.00,WeatherDisplay:10.37,2013-05-14 07:52:00,
2013-05-14 00:53:00,59.9,48.9,29.99,South,187,0.0,0.0,67,0.00,SCT,,0.00,WeatherDisplay:10.37,2013-05-14 07:53:00,
2013-05-14 00:54:00,59.8,48.8,29.99,South,187,0.0,0.0,67,0.00,SCT,,0.00,WeatherDisplay:10.37,2013-05-14 07:54:00,
2013-05-14 00:55:00,59.7,48.7,29.99,South,187,0.0,0.0,67,0.00,SCT,,0.00,WeatherDisplay:10.37,2013-05-14 07:55:00,
2013-05-14 00:57:00,59.6,48.6,29.99,South,187,0.0,0.0,67,0.00,SCT,,0.00,WeatherDisplay:10.37,2013-05-14 07:57:00,
2013-05-14 00:58:00,59.7,48.3,29.98,South,187,0.0,0.0,66,0.00,SCT,,0.00,WeatherDisplay:10.37,2013-05-14 07:58:00,
2013-05-14 01:00:00,59.7,48.3,29.98,South,187,0.0,0.0,66,0.00,SCT,,0.00,WeatherDisplay:10.37,2013-05-14 08:00:00,
2013-05-14 01:02:00,59.7,48.3,29.98,South,187,0.0,0.0,66,0.00,SCT,,0.00,WeatherDisplay:10.37,2013-05-14 08:02:00,
2013-05-14 01:03:00,59.8,48.4,29.98,South,187,1.0,1.0,66,0.00,SCT,,0.00,WeatherDisplay:10.37,2013-05-14 08:03:00,
2013-05-14 01:04:00,59.8,48.4,29.98,South,187,2.3,2.3,66,0.00,SCT,,0.00,WeatherDisplay:10.37,2013-05-14 08:04:00,
2013-05-14 01:05:00,59.7,48.3,29.98,SSW,200,2.3,2.3,66,0.00,SCT,,0.00,WeatherDisplay:10.37,2013-05-14 08:05:00,
2013-05-14 01:06:00,59.7,48.3,29.98,SSW,205,2.3,2.3,66,0.00,SCT,,0.00,WeatherDisplay:10.37,2013-05-14 08:06:00,
2013-05-14 01:07:00,59.7,48.3,29.98,SSW,205,1.2,0.0,66,0.00,SCT,,0.00,WeatherDisplay:10.37,2013-05-14 08:07:00,
2013-05-14 01:08:00,59.8,48.4,29.98,SSW,205,0.0,0.0,66,0.00,SCT,,0.00,WeatherDisplay:10.37,2013-05-14 08:08:00,
2013-05-14 01:10:00,59.8,48.0,29.98,SSW,205,1.2,1.2,65,0.00,SCT,,0.00,WeatherDisplay:10.37,2013-05-14 08:10:00,
2013-05-14 01:11:00,59.7,47.9,29.98,SSW,205,1.2,1.2,65,0.00,SCT,,0.00,WeatherDisplay:10.37,2013-05-14 08:11:00,
2013-05-14 01:13:00,59.6,47.8,29.98,SSW,205,0.0,0.0,65,0.00,SCT,,0.00,WeatherDisplay:10.37,2013-05-14 08:13:00,
2013-05-14 01:15:00,59.6,47.8,29.98,SSW,205,0.0,1.0,65,0.00,SCT,,0.00,WeatherDisplay:10.37,2013-05-14 08:15:00,
2013-05-14 01:16:00,59.6,48.2,29.98,SSW,205,0.0,0.0,66,0.00,SCT,,0.00,WeatherDisplay:10.37,2013-05-14 08:16:00,
2013-05-14 01:17:00,59.6,48.2,29.99,SSW,205,0.0,0.0,66,0.00,SCT,,0.00,WeatherDisplay:10.37,2013-05-14 08:17:00,
2013-05-14 01:18:00,59.6,48.2,29.98,SSW,205,0.0,0.0,66,0.00,SCT,,0.00,WeatherDisplay:10.37,2013-05-14 08:18:00,
2013-05-14 01:21:00,59.5,48.1,29.99,SSW,205,0.0,0.0,66,0.00,SCT,,0.00,WeatherDisplay:10.37,2013-05-14 08:21:00,
2013-05-14 01:22:00,59.5,48.1,29.99,SSW,205,0.0,0.0,66,0.00,SCT,,0.00,WeatherDisplay:10.37,2013-05-14 08:22:00,
2013-05-14 01:24:00,59.4,48.0,29.98,SE,128,2.3,2.3,66,0.00,SCT,,0.00,WeatherDisplay:10.37,2013-05-14 08:24:00,
2013-05-14 01:27:00,59.4,48.0,29.98,WSW,249,2.3,0.0,66,0.00,SCT,,0.00,WeatherDisplay:10.37,2013-05-14 08:27:00,
2013-05-14 01:28:00,59.4,48.0,29.98,SE,130,5.0,5.0,66,0.00,SCT,,0.00,WeatherDisplay:10.37,2013-05-14 08:28:00,
2013-05-14 01:30:00,59.2,48.2,29.98,SE,135,0.0,0.0,67,0.00,SCT,,0.00,WeatherDisplay:10.37,2013-05-14 08:30:00,
2013-05-14 01:32:00,59.2,47.8,29.98,SE,135,0.0,0.0,66,0.00,SCT,,0.00,WeatherDisplay:10.37,2013-05-14 08:32:00,
2013-05-14 01:34:00,59.2,47.8,29.98,SE,135,1.2,1.2,66,0.00,SCT,,0.00,WeatherDisplay:10.37,2013-05-14 08:34:00,
2013-05-14 01:35:00,59.1,48.1,29.98,ESE,111,0.0,1.1,67,0.00,SCT,,0.00,WeatherDisplay:10.37,2013-05-14 08:35:00,
2013-05-14 01:37:00,59.0,48.1,29.98,ESE,119,4.6,4.6,67,0.00,SCT,,0.00,WeatherDisplay:10.37,2013-05-14 08:37:00,
2013-05-14 01:38:00,59.0,48.1,29.98,ESE,120,4.6,4.6,67,0.00,SCT,,0.00,WeatherDisplay:10.37,2013-05-14 08:38:00,
2013-05-14 01:39:00,59.0,48.1,29.98,South,177,1.2,1.2,67,0.00,SCT,,0.00,WeatherDisplay:10.37,2013-05-14 08:39:00,
2013-05-14 01:40:00,58.8,47.9,29.98,SE,126,1.2,1.2,67,0.00,SCT,,0.00,WeatherDisplay:10.37,2013-05-14 08:40:00,
2013-05-14 01:42:00,58.7,48.2,29.98,South,187,4.6,4.6,68,0.00,SCT,,0.00,WeatherDisplay:10.37,2013-05-14 08:42:00,
2013-05-14 01:43:00,58.6,48.1,29.98,ESE,118,4.6,4.6,68,0.00,SCT,,0.00,WeatherDisplay:10.37,2013-05-14 08:43:00,
2013-05-14 01:45:00,58.6,48.1,29.98,South,188,6.9,6.9,68,0.00,SCT,,0.00,WeatherDisplay:10.37,2013-05-14 08:45:00,
2013-05-14 01:48:00,58.4,48.3,29.98,ESE,122,3.5,3.5,69,0.00,SCT,,0.00,WeatherDisplay:10.37,2013-05-14 08:48:00,
2013-05-14 01:49:00,58.3,48.2,29.98,ESE,122,3.5,3.5,69,0.00,SCT,,0.00,WeatherDisplay:10.37,2013-05-14 08:49:00,
2013-05-14 01:50:00,58.3,47.8,29.98,ESE,122,3.5,3.5,68,0.00,SCT,,0.00,WeatherDisplay:10.37,2013-05-14 08:50:00,
2013-05-14 01:51:00,58.3,48.2,29.98,NNW,345,1.2,1.2,69,0.00,SCT,,0.00,WeatherDisplay:10.37,2013-05-14 08:51:00,
2013-05-14 01:53:00,58.3,47.8,29.98,ESE,115,3.5,3.5,68,0.00,SCT,,0.00,WeatherDisplay:10.37,2013-05-14 08:53:00,
2013-05-14 01:54:00,58.2,47.7,29.98,ESE,115,3.5,3.5,68,0.00,SCT,,0.00,WeatherDisplay:10.37,2013-05-14 08:54:00,
2013-05-14 01:55:00,58.2,47.7,29.98,SE,136,2.3,0.0,68,0.00,SCT,,0.00,WeatherDisplay:10.37,2013-05-14 08:55:00,
2013-05-14 01:56:00,58.1,47.6,29.97,SW,222,2.3,2.3,68,0.00,SCT,,0.00,WeatherDisplay:10.37,2013-05-14 08:56:00,
2013-05-14 01:58:00,58.0,47.9,29.97,SW,221,1.2,0.0,69,0.00,SCT,,0.00,WeatherDisplay:10.37,2013-05-14 08:58:00,
2013-05-14 01:59:00,58.0,47.9,29.97,SW,221,1.2,1.2,69,0.00,SCT,,0.00,WeatherDisplay:10.37,2013-05-14 08:59:00,
2013-05-14 02:00:00,57.9,47.8,29.97,SW,221,1.2,1.2,69,0.00,SCT,,0.00,WeatherDisplay:10.37,2013-05-14 09:00:00,
2013-05-14 02:03:00,57.9,47.8,29.98,SE,134,1.2,1.2,69,0.00,SCT,,0.00,WeatherDisplay:10.37,2013-05-14 09:03:00,
2013-05-14 02:04:00,57.9,47.8,29.97,SE,134,0.0,0.0,69,0.00,SCT,,0.00,WeatherDisplay:10.37,2013-05-14 09:04:00,
2013-05-14 02:05:00,57.9,47.8,29.97,SSE,167,0.0,4.0,69,0.00,SCT,,0.00,WeatherDisplay:10.37,2013-05-14 09:05:00,
2013-05-14 02:06:00,57.8,47.7,29.97,SE,134,1.2,1.2,69,0.00,SCT,,0.00,WeatherDisplay:10.37,2013-05-14 09:06:00,
2013-05-14 02:08:00,57.8,47.7,29.97,ENE,76,1.2,1.2,69,0.00,SCT,,0.00,WeatherDisplay:10.37,2013-05-14 09:08:00,
2013-05-14 02:09:00,57.8,47.7,29.97,South,191,1.2,0.0,69,0.00,SCT,,0.00,WeatherDisplay:10.37,2013-05-14 09:09:00,
2013-05-14 02:10:00,57.8,47.7,29.97,ESE,109,3.5,3.5,69,0.00,SCT,,0.00,WeatherDisplay:10.37,2013-05-14 09:10:00,
2013-05-14 02:12:00,57.8,47.7,29.97,ESE,111,1.2,1.2,69,0.00,SCT,,0.00,WeatherDisplay:10.37,2013-05-14 09:12:00,
2013-05-14 02:13:00,57.8,47.7,29.97,East,87,4.0,4.0,69,0.00,SCT,,0.00,WeatherDisplay:10.37,2013-05-14 09:13:00,
2013-05-14 02:15:00,57.8,47.7,29.97,SSE,162,3.5,3.5,69,0.00,SCT,,0.00,WeatherDisplay:10.37,2013-05-14 09:15:00,
2013-05-14 02:16:00,57.7,47.6,29.97,SSE,162,6.0,6.0,69,0.00,SCT,,0.00,WeatherDisplay:10.37,2013-05-14 09:16:00,
2013-05-14 02:17:00,57.7,47.6,29.97,SSE,162,8.1,8.1,69,0.00,SCT,,0.00,WeatherDisplay:10.37,2013-05-14 09:17:00,
2013-05-14 02:19:00,57.7,47.6,29.97,SSE,159,5.8,5.8,69,0.00,SCT,,0.00,WeatherDisplay:10.37,2013-05-14 09:19:00,
2013-05-14 02:20:00,57.6,47.9,29.97,SSE,159,0.0,0.0,70,0.00,SCT,,0.00,WeatherDisplay:10.37,2013-05-14 09:20:00,
2013-05-14 02:21:00,57.6,47.5,29.98,SSE,163,1.0,1.0,69,0.00,SCT,,0.00,WeatherDisplay:10.37,2013-05-14 09:21:00,
2013-05-14 02:22:00,57.6,47.9,29.98,East,92,4.6,4.6,70,0.00,SCT,,0.00,WeatherDisplay:10.37,2013-05-14 09:22:00,
2013-05-14 02:23:00,57.6,47.9,29.97,East,94,3.5,3.5,70,0.00,SCT,,0.00,WeatherDisplay:10.37,2013-05-14 09:23:00,
2013-05-14 02:24:00,57.6,47.9,29.98,SW,222,3.5,3.5,70,0.00,SCT,,0.00,WeatherDisplay:10.37,2013-05-14 09:24:00,
2013-05-14 02:25:00,57.5,47.8,29.97,SW,223,3.5,0.0,70,0.00,SCT,,0.00,WeatherDisplay:10.37,2013-05-14 09:25:00,
2013-05-14 02:27:00,57.5,47.8,29.97,SSE,149,5.0,5.0,70,0.00,SCT,,0.00,WeatherDisplay:10.37,2013-05-14 09:27:00,
2013-05-14 02:29:00,57.5,47.8,29.97,ESE,109,5.8,5.8,70,0.00,SCT,,0.00,WeatherDisplay:10.37,2013-05-14 09:29:00,
2013-05-14 02:31:00,57.5,47.8,29.97,SSW,199,3.5,3.5,70,0.00,SCT,,0.00,WeatherDisplay:10.37,2013-05-14 09:31:00,
2013-05-14 02:32:00,57.3,47.6,29.97,SSE,151,5.8,5.8,70,0.00,SCT,,0.00,WeatherDisplay:10.37,2013-05-14 09:32:00,
2013-05-14 02:33:00,57.3,47.6,29.97,SE,132,5.8,5.8,70,0.00,SCT,,0.00,WeatherDisplay:10.37,2013-05-14 09:33:00,
2013-05-14 02:34:00,57.3,47.6,29.97,South,170,5.8,5.8,70,0.00,SCT,,0.00,WeatherDisplay:10.37,2013-05-14 09:34:00,
2013-05-14 02:36:00,57.3,47.6,29.97,SSW,199,2.3,2.3,70,0.00,SCT,,0.00,WeatherDisplay:10.37,2013-05-14 09:36:00,
2013-05-14 02:38:00,57.2,47.5,29.97,SW,216,1.2,1.2,70,0.00,SCT,,0.00,WeatherDisplay:10.37,2013-05-14 09:38:00,
2013-05-14 02:39:00,57.2,47.5,29.97,SW,216,1.2,1.2,70,0.00,SCT,,0.00,WeatherDisplay:10.37,2013-05-14 09:39:00,
2013-05-14 02:41:00,57.1,47.8,29.97,SW,214,1.2,1.2,71,0.00,SCT,,0.00,WeatherDisplay:10.37,2013-05-14 09:41:00,
2013-05-14 02:43:00,57.0,47.3,29.97,WSW,238,1.2,1.2,70,0.00,SCT,,0.00,WeatherDisplay:10.37,2013-05-14 09:43:00,
2013-05-14 02:44:00,57.0,47.7,29.97,South,179,2.0,2.0,71,0.00,SCT,,0.00,WeatherDisplay:10.37,2013-05-14 09:44:00,
2013-05-14 02:46:00,56.9,47.6,29.96,SSW,213,2.3,2.3,71,0.00,SCT,,0.00,WeatherDisplay:10.37,2013-05-14 09:46:00,
2013-05-14 02:47:00,56.9,47.6,29.96,SE,146,2.3,2.3,71,0.00,SCT,,0.00,WeatherDisplay:10.37,2013-05-14 09:47:00,
2013-05-14 02:50:00,56.9,47.6,29.96,SE,146,1.2,0.0,71,0.00,SCT,,0.00,WeatherDisplay:10.37,2013-05-14 09:50:00,
2013-05-14 02:51:00,56.9,47.6,29.97,SE,142,1.0,1.0,71,0.00,SCT,,0.00,WeatherDisplay:10.37,2013-05-14 09:51:00,
2013-05-14 02:52:00,56.8,47.9,29.96,SSW,196,4.6,4.6,72,0.00,SCT,,0.00,WeatherDisplay:10.37,2013-05-14 09:52:00,
2013-05-14 02:53:00,56.7,47.4,29.97,SW,218,4.6,4.6,71,0.00,SCT,,0.00,WeatherDisplay:10.37,2013-05-14 09:53:00,
2013-05-14 02:55:00,56.7,47.8,29.97,SSW,192,1.2,1.2,72,0.00,SCT,,0.00,WeatherDisplay:10.37,2013-05-14 09:55:00,
2013-05-14 02:56:00,56.7,47.4,29.96,SSW,193,1.2,1.2,71,0.00,SCT,,0.00,WeatherDisplay:10.37,2013-05-14 09:56:00,
2013-05-14 02:57:00,56.7,47.8,29.97,South,191,2.0,2.0,72,0.00,SCT,,0.00,WeatherDisplay:10.37,2013-05-14 09:57:00,
2013-05-14 02:59:00,56.7,47.8,29.97,SE,143,4.0,4.0,72,0.00,SCT,,0.00,WeatherDisplay:10.37,2013-05-14 09:59:00,
2013-05-14 03:00:00,56.7,47.8,29.96,SSW,196,3.5,3.5,72,0.00,SCT,,0.00,WeatherDisplay:10.37,2013-05-14 10:00:00,
2013-05-14 03:01:00,56.6,47.7,29.96,South,178,3.5,3.5,72,0.00,SCT,,0.00,WeatherDisplay:10.37,2013-05-14 10:01:00,
2013-05-14 03:02:00,56.6,48.0,29.97,South,175,2.3,0.0,73,0.00,SCT,,0.00,WeatherDisplay:10.37,2013-05-14 10:02:00,
2013-05-14 03:03:00,56.6,48.0,29.97,ESE,105,2.0,0.0,73,0.00,SCT,,0.00,WeatherDisplay:10.37,2013-05-14 10:03:00,
2013-05-14 03:04:00,56.6,48.0,29.97,South,185,0.0,0.9,73,0.00,SCT,,0.00,WeatherDisplay:10.37,2013-05-14 10:04:00,
2013-05-14 03:05:00,56.6,48.0,29.97,South,185,0.0,0.0,73,0.00,SCT,,0.00,WeatherDisplay:10.37,2013-05-14 10:05:00,
2013-05-14 03:07:00,56.6,48.0,29.96,SW,225,2.3,2.3,73,0.00,SCT,,0.00,WeatherDisplay:10.37,2013-05-14 10:07:00,
2013-05-14 03:08:00,56.6,48.0,29.96,WSW,242,2.3,2.3,73,0.00,SCT,,0.00,WeatherDisplay:10.37,2013-05-14 10:08:00,
2013-05-14 03:09:00,56.6,48.0,29.96,WSW,243,2.3,2.3,73,0.00,SCT,,0.00,WeatherDisplay:10.37,2013-05-14 10:09:00,
2013-05-14 03:10:00,56.6,48.0,29.96,SSW,202,3.5,3.5,73,0.00,SCT,,0.00,WeatherDisplay:10.37,2013-05-14 10:10:00,
2013-05-14 03:13:00,56.6,48.0,29.96,SE,127,3.5,0.0,73,0.00,SCT,,0.00,WeatherDisplay:10.37,2013-05-14 10:13:00,
2013-05-14 03:14:00,56.7,48.1,29.96,SE,127,3.5,0.0,73,0.00,SCT,,0.00,WeatherDisplay:10.37,2013-05-14 10:14:00,
2013-05-14 03:15:00,56.7,48.1,29.96,South,176,1.2,1.2,73,0.00,SCT,,0.00,WeatherDisplay:10.37,2013-05-14 10:15:00,
2013-05-14 03:19:00,56.7,48.1,29.96,SSE,150,0.0,0.0,73,0.00,SCT,,0.00,WeatherDisplay:10.37,2013-05-14 10:19:00,
2013-05-14 03:20:00,56.7,48.1,29.96,ESE,120,3.0,3.0,73,0.00,SCT,,0.00,WeatherDisplay:10.37,2013-05-14 10:20:00,
2013-05-14 03:24:00,56.7,48.1,29.96,SSE,150,1.2,1.2,73,0.00,SCT,,0.00,WeatherDisplay:10.37,2013-05-14 10:24:00,
2013-05-14 03:25:00,56.7,48.1,29.96,SSE,147,6.0,6.0,73,0.00,SCT,,0.00,WeatherDisplay:10.37,2013-05-14 10:25:00,
2013-05-14 03:26:00,56.7,48.1,29.96,SE,134,5.8,5.8,73,0.00,SCT,,0.00,WeatherDisplay:10.37,2013-05-14 10:26:00,
2013-05-14 03:27:00,56.8,48.2,29.96,SE,132,3.5,3.5,73,0.00,SCT,,0.00,WeatherDisplay:10.37,2013-05-14 10:27:00,
2013-05-14 03:30:00,56.8,48.2,29.97,SE,128,1.2,0.0,73,0.00,SCT,,0.00,WeatherDisplay:10.37,2013-05-14 10:30:00,
2013-05-14 03:31:00,56.8,47.9,29.97,SE,134,2.3,2.3,72,0.00,SCT,,0.00,WeatherDisplay:10.37,2013-05-14 10:31:00,
2013-05-14 03:32:00,56.8,47.9,29.97,SE,134,2.3,2.3,72,0.00,SCT,,0.00,WeatherDisplay:10.37,2013-05-14 10:32:00,
2013-05-14 03:33:00,56.8,47.9,29.96,SSE,149,3.5,3.5,72,0.00,SCT,,0.00,WeatherDisplay:10.37,2013-05-14 10:33:00,
2013-05-14 03:36:00,56.8,47.9,29.96,SE,133,6.9,6.9,72,0.00,SCT,,0.00,WeatherDisplay:10.37,2013-05-14 10:36:00,
2013-05-14 03:37:00,56.8,47.9,29.96,SE,125,3.5,3.5,72,0.00,SCT,,0.00,WeatherDisplay:10.37,2013-05-14 10:37:00,
2013-05-14 03:38:00,56.8,47.9,29.96,SE,124,3.5,3.5,72,0.00,SCT,,0.00,WeatherDisplay:10.37,2013-05-14 10:38:00,
2013-05-14 03:39:00,56.8,47.9,29.97,SE,143,1.2,1.2,72,0.00,SCT,,0.00,WeatherDisplay:10.37,2013-05-14 10:39:00,
2013-05-14 03:41:00,56.7,48.1,29.97,South,191,2.3,2.3,73,0.00,SCT,,0.00,WeatherDisplay:10.37,2013-05-14 10:41:00,
2013-05-14 03:43:00,56.7,47.8,29.97,SSW,206,3.5,3.5,72,0.00,SCT,,0.00,WeatherDisplay:10.37,2013-05-14 10:43:00,
2013-05-14 03:44:00,56.7,47.8,29.97,SSW,209,0.0,0.0,72,0.00,SCT,,0.00,WeatherDisplay:10.37,2013-05-14 10:44:00,
2013-05-14 03:47:00,56.6,48.0,29.97,South,171,4.6,4.6,73,0.00,SCT,,0.00,WeatherDisplay:10.37,2013-05-14 10:47:00,
2013-05-14 03:48:00,56.6,48.0,29.97,SW,217,2.3,2.3,73,0.00,SCT,,0.00,WeatherDisplay:10.37,2013-05-14 10:48:00,
2013-05-14 03:49:00,56.6,48.0,29.97,SW,217,2.3,2.3,73,0.00,SCT,,0.00,WeatherDisplay:10.37,2013-05-14 10:49:00,
2013-05-14 03:50:00,56.6,48.0,29.97,SE,146,3.0,3.0,73,0.00,SCT,,0.00,WeatherDisplay:10.37,2013-05-14 10:50:00,
2013-05-14 03:52:00,56.5,47.6,29.97,SE,136,3.5,3.5,72,0.00,SCT,,0.00,WeatherDisplay:10.37,2013-05-14 10:52:00,
2013-05-14 03:54:00,56.4,47.9,29.97,South,176,1.2,1.2,73,0.00,SCT,,0.00,WeatherDisplay:10.37,2013-05-14 10:54:00,
2013-05-14 03:55:00,56.4,47.5,29.97,South,176,1.2,0.0,72,0.00,SCT,,0.00,WeatherDisplay:10.37,2013-05-14 10:55:00,
2013-05-14 03:57:00,56.4,47.9,29.97,SSE,168,13.8,13.8,73,0.00,SCT,,0.00,WeatherDisplay:10.37,2013-05-14 10:57:00,
2013-05-14 03:59:00,56.3,47.8,29.97,NW,315,3.5,3.5,73,0.00,SCT,,0.00,WeatherDisplay:10.37,2013-05-14 10:59:00,
2013-05-14 04:00:00,56.3,47.8,29.97,NW,317,3.5,3.5,73,0.00,SCT,,0.00,WeatherDisplay:10.37,2013-05-14 11:00:00,
2013-05-14 04:03:00,56.2,47.7,29.97,SE,143,5.0,5.0,73,0.00,SCT,,0.00,WeatherDisplay:10.37,2013-05-14 11:03:00,
2013-05-14 04:04:00,56.1,47.6,29.97,SSE,155,4.6,0.0,73,0.00,SCT,,0.00,WeatherDisplay:10.37,2013-05-14 11:04:00,
2013-05-14 04:05:00,56.1,47.6,29.97,ESE,109,6.0,6.0,73,0.00,SCT,,0.00,WeatherDisplay:10.37,2013-05-14 11:05:00,
2013-05-14 04:09:00,56.1,47.6,29.97,ESE,111,3.5,3.5,73,0.00,SCT,,0.00,WeatherDisplay:10.37,2013-05-14 11:09:00,
2013-05-14 04:10:00,56.1,47.6,29.97,SE,137,2.0,6.0,73,0.00,SCT,,0.00,WeatherDisplay:10.37,2013-05-14 11:10:00,
2013-05-14 04:11:00,56.1,47.6,29.97,SSE,157,3.5,3.5,73,0.00,SCT,,0.00,WeatherDisplay:10.37,2013-05-14 11:11:00,
2013-05-14 04:14:00,56.1,47.6,29.97,SSW,198,1.2,1.2,73,0.00,SCT,,0.00,WeatherDisplay:10.37,2013-05-14 11:14:00,
2013-05-14 04:15:00,56.2,47.7,29.97,SE,124,4.6,4.6,73,0.00,SCT,,0.00,WeatherDisplay:10.37,2013-05-14 11:15:00,
2013-05-14 04:17:00,56.2,47.7,29.97,ESE,120,1.2,1.2,73,0.00,SCT,,0.00,WeatherDisplay:10.37,2013-05-14 11:17:00,
2013-05-14 04:19:00,56.2,47.7,29.97,ESE,120,2.3,2.3,73,0.00,SCT,,0.00,WeatherDisplay:10.37,2013-05-14 11:19:00,
2013-05-14 04:20:00,56.2,47.7,29.97,ESE,120,1.2,0.0,73,0.00,SCT,,0.00,WeatherDisplay:10.37,2013-05-14 11:20:00,
2013-05-14 04:21:00,56.2,47.7,29.97,ESE,120,1.2,0.0,73,0.00,SCT,,0.00,WeatherDisplay:10.37,2013-05-14 11:21:00,
2013-05-14 04:23:00,56.2,47.7,29.97,ESE,120,1.2,1.2,73,0.00,SCT,,0.00,WeatherDisplay:10.37,2013-05-14 11:23:00,
2013-05-14 04:24:00,56.2,47.7,29.97,SE,134,3.0,3.0,73,0.00,SCT,,0.00,WeatherDisplay:10.37,2013-05-14 11:24:00,
2013-05-14 04:25:00,56.2,47.7,29.97,SE,133,3.5,3.5,73,0.00,SCT,,0.00,WeatherDisplay:10.37,2013-05-14 11:25:00,
2013-05-14 04:26:00,56.2,47.7,29.97,SE,132,1.2,0.0,73,0.00,SCT,,0.00,WeatherDisplay:10.37,2013-05-14 11:26:00,
2013-05-14 04:27:00,56.2,47.7,29.97,SE,132,1.2,0.0,73,0.00,SCT,,0.00,WeatherDisplay:10.37,2013-05-14 11:27:00,
2013-05-14 04:28:00,56.2,47.3,29.97,SE,141,1.2,1.2,72,0.00,SCT,,0.00,WeatherDisplay:10.37,2013-05-14 11:28:00,
2013-05-14 04:29:00,56.2,47.7,29.98,SE,141,1.2,0.0,73,0.00,SCT,,0.00,WeatherDisplay:10.37,2013-05-14 11:29:00,
2013-05-14 04:30:00,56.2,47.7,29.98,SE,141,0.0,0.0,73,0.00,SCT,,0.00,WeatherDisplay:10.37,2013-05-14 11:30:00,
2013-05-14 04:32:00,56.2,47.7,29.98,SE,144,2.0,2.0,73,0.00,SCT,,0.00,WeatherDisplay:10.37,2013-05-14 11:32:00,
2013-05-14 04:35:00,56.2,47.3,29.98,SSE,148,0.0,0.0,72,0.00,SCT,,0.00,WeatherDisplay:10.37,2013-05-14 11:35:00,
2013-05-14 04:37:00,56.1,47.6,29.98,SE,132,5.0,5.0,73,0.00,SCT,,0.00,WeatherDisplay:10.37,2013-05-14 11:37:00,
2013-05-14 04:41:00,56.0,47.5,29.98,SSW,211,4.6,4.6,73,0.00,SCT,,0.00,WeatherDisplay:10.37,2013-05-14 11:41:00,
2013-05-14 04:42:00,55.9,47.4,29.98,SE,140,7.0,7.0,73,0.00,SCT,,0.00,WeatherDisplay:10.37,2013-05-14 11:42:00,
2013-05-14 04:43:00,55.9,47.4,29.98,SSE,151,6.9,6.9,73,0.00,SCT,,0.00,WeatherDisplay:10.37,2013-05-14 11:43:00,
2013-05-14 04:45:00,55.8,47.3,29.98,SE,146,2.3,2.3,73,0.00,SCT,,0.00,WeatherDisplay:10.37,2013-05-14 11:45:00,
2013-05-14 04:46:00,55.8,47.3,29.98,ESE,103,6.9,6.9,73,0.00,SCT,,0.00,WeatherDisplay:10.37,2013-05-14 11:46:00,
2013-05-14 04:47:00,55.8,47.3,29.98,SE,132,6.9,6.9,73,0.00,SCT,,0.00,WeatherDisplay:10.37,2013-05-14 11:47:00,
2013-05-14 04:48:00,55.8,47.3,29.98,SSW,202,3.5,3.5,73,0.00,SCT,,0.00,WeatherDisplay:10.37,2013-05-14 11:48:00,
2013-05-14 04:49:00,55.8,47.3,29.97,SW,232,3.5,3.5,73,0.00,SCT,,0.00,WeatherDisplay:10.37,2013-05-14 11:49:00,
2013-05-14 04:50:00,55.8,47.3,29.98,South,179,4.6,4.6,73,0.00,SCT,,0.00,WeatherDisplay:10.37,2013-05-14 11:50:00,
2013-05-14 04:51:00,55.8,47.3,29.98,SSE,164,4.6,4.6,73,0.00,SCT,,0.00,WeatherDisplay:10.37,2013-05-14 11:51:00,
2013-05-14 04:53:00,55.7,47.2,29.98,ESE,123,10.4,10.4,73,0.00,SCT,,0.00,WeatherDisplay:10.37,2013-05-14 11:53:00,
2013-05-14 04:54:00,55.7,47.2,29.98,SE,132,10.4,10.4,73,0.00,SCT,,0.00,WeatherDisplay:10.37,2013-05-14 11:54:00,
2013-05-14 04:55:00,55.7,47.2,29.98,East,81,6.9,6.9,73,0.00,SCT,,0.00,WeatherDisplay:10.37,2013-05-14 11:55:00,
2013-05-14 04:57:00,55.6,47.1,29.98,South,174,3.5,3.5,73,0.00,SCT,,0.00,WeatherDisplay:10.37,2013-05-14 11:57:00,
2013-05-14 04:58:00,55.6,47.1,29.98,South,171,3.5,3.5,73,0.00,SCT,,0.00,WeatherDisplay:10.37,2013-05-14 11:58:00,
2013-05-14 04:59:00,55.6,47.1,29.98,NE,45,3.5,3.5,73,0.00,SCT,,0.00,WeatherDisplay:10.37,2013-05-14 11:59:00,
2013-05-14 05:02:00,55.5,47.3,29.98,SSE,166,4.6,4.6,74,0.00,SCT,,0.00,WeatherDisplay:10.37,2013-05-14 12:02:00,
2013-05-14 05:04:00,55.5,47.0,29.98,SSE,154,1.2,1.2,73,0.00,SCT,,0.00,WeatherDisplay:10.37,2013-05-14 12:04:00,
2013-05-14 05:05:00,55.5,47.0,29.97,SSE,154,3.5,3.5,73,0.00,SCT,,0.00,WeatherDisplay:10.37,2013-05-14 12:05:00,
2013-05-14 05:07:00,55.4,46.9,29.97,SE,143,3.5,3.5,73,0.00,SCT,,0.00,WeatherDisplay:10.37,2013-05-14 12:07:00,
2013-05-14 05:08:00,55.4,47.2,29.98,SE,138,1.2,1.2,74,0.00,SCT,,0.00,WeatherDisplay:10.37,2013-05-14 12:08:00,
2013-05-14 05:09:00,55.4,46.9,29.97,SE,144,1.2,1.2,73,0.00,SCT,,0.00,WeatherDisplay:10.37,2013-05-14 12:09:00,
2013-05-14 05:10:00,55.4,47.2,29.97,SSE,147,1.2,1.2,74,0.00,SCT,,0.00,WeatherDisplay:10.37,2013-05-14 12:10:00,
2013-05-14 05:11:00,55.4,47.2,29.98,SE,133,3.5,3.5,74,0.00,SCT,,0.00,WeatherDisplay:10.37,2013-05-14 12:11:00,
2013-05-14 05:13:00,55.4,47.2,29.97,SE,126,2.3,2.3,74,0.00,SCT,,0.00,WeatherDisplay:10.37,2013-05-14 12:13:00,
2013-05-14 05:15:00,55.4,46.9,29.97,South,178,3.5,3.5,73,0.00,SCT,,0.00,WeatherDisplay:10.37,2013-05-14 12:15:00,
2013-05-14 05:16:00,55.4,46.9,29.98,SE,128,5.8,5.8,73,0.00,SCT,,0.00,WeatherDisplay:10.37,2013-05-14 12:16:00,
2013-05-14 05:18:00,55.4,47.2,29.97,SE,139,5.8,5.8,74,0.00,SCT,,0.00,WeatherDisplay:10.37,2013-05-14 12:18:00,
2013-05-14 05:19:00,55.4,47.2,29.98,SSE,155,3.0,3.0,74,0.00,SCT,,0.00,WeatherDisplay:10.37,2013-05-14 12:19:00,
2013-05-14 05:21:00,55.4,47.2,29.98,East,88,5.8,5.8,74,0.00,SCT,,0.00,WeatherDisplay:10.37,2013-05-14 12:21:00,
2013-05-14 05:22:00,55.4,47.2,29.97,SE,126,5.8,5.8,74,0.00,SCT,,0.00,WeatherDisplay:10.37,2013-05-14 12:22:00,
2013-05-14 05:23:00,55.4,47.2,29.97,SE,138,4.6,4.6,74,0.00,SCT,,0.00,WeatherDisplay:10.37,2013-05-14 12:23:00,
2013-05-14 05:25:00,55.4,47.2,29.97,SSE,168,5.8,5.8,74,0.00,SCT,,0.00,WeatherDisplay:10.37,2013-05-14 12:25:00,
2013-05-14 05:26:00,55.3,47.2,29.97,SSE,168,5.8,5.8,74,0.00,SCT,,0.00,WeatherDisplay:10.37,2013-05-14 12:26:00,
2013-05-14 05:27:00,55.3,46.8,29.97,SE,138,5.8,5.8,73,0.00,SCT,,0.00,WeatherDisplay:10.37,2013-05-14 12:27:00,
2013-05-14 05:28:00,55.4,47.2,29.97,East,94,2.3,2.3,74,0.00,SCT,,0.00,WeatherDisplay:10.37,2013-05-14 12:28:00,
2013-05-14 05:31:00,55.3,46.8,29.97,South,178,2.3,2.3,73,0.00,SCT,,0.00,WeatherDisplay:10.37,2013-05-14 12:31:00,
2013-05-14 05:32:00,55.3,47.2,29.97,South,178,2.3,2.3,74,0.00,SCT,,0.00,WeatherDisplay:10.37,2013-05-14 12:32:00,
2013-05-14 05:33:00,55.3,47.2,29.97,SSE,147,2.3,2.3,74,0.00,SCT,,0.00,WeatherDisplay:10.37,2013-05-14 12:33:00,
2013-05-14 05:34:00,55.3,47.2,29.98,SE,126,2.3,2.3,74,0.00,SCT,,0.00,WeatherDisplay:10.37,2013-05-14 12:34:00,
2013-05-14 05:37:00,55.3,46.8,29.97,ESE,116,1.2,1.2,73,0.00,SCT,,0.00,WeatherDisplay:10.37,2013-05-14 12:37:00,
2013-05-14 05:39:00,55.3,46.8,29.98,ESE,123,4.6,4.6,73,0.00,SCT,,0.00,WeatherDisplay:10.37,2013-05-14 12:39:00,
2013-05-14 05:40:00,55.4,46.9,29.97,ESE,123,1.2,1.2,73,0.00,SCT,,0.00,WeatherDisplay:10.37,2013-05-14 12:40:00,
2013-05-14 05:42:00,55.3,46.8,29.97,ESE,118,4.0,4.0,73,0.00,SCT,,0.00,WeatherDisplay:10.37,2013-05-14 12:42:00,
2013-05-14 05:43:00,55.3,46.8,29.97,ESE,108,3.5,3.5,73,0.00,SCT,,0.00,WeatherDisplay:10.37,2013-05-14 12:43:00,
2013-05-14 05:44:00,55.3,46.8,29.97,ESE,110,2.3,2.3,73,0.00,SCT,,0.00,WeatherDisplay:10.37,2013-05-14 12:44:00,
2013-05-14 05:45:00,55.3,46.8,29.97,ESE,122,1.2,1.2,73,0.00,SCT,,0.00,WeatherDisplay:10.37,2013-05-14 12:45:00,
2013-05-14 05:47:00,55.3,46.8,29.98,ESE,122,1.2,1.2,73,0.00,SCT,,0.00,WeatherDisplay:10.37,2013-05-14 12:47:00,
2013-05-14 05:49:00,55.3,46.8,29.97,ESE,110,4.0,4.0,73,0.00,SCT,,0.00,WeatherDisplay:10.37,2013-05-14 12:49:00,
2013-05-14 05:50:00,55.3,46.8,29.98,ESE,115,3.5,3.5,73,0.00,SCT,,0.00,WeatherDisplay:10.37,2013-05-14 12:50:00,
2013-05-14 05:51:00,55.3,46.8,29.97,ESE,115,3.5,3.5,73,0.00,SCT,,0.00,WeatherDisplay:10.37,2013-05-14 12:51:00,
2013-05-14 05:52:00,55.3,46.8,29.97,ESE,115,1.2,1.2,73,0.00,SCT,,0.00,WeatherDisplay:10.37,2013-05-14 12:52:00,
2013-05-14 05:54:00,55.3,46.8,29.98,ESE,115,0.0,0.0,73,0.00,SCT,,0.00,WeatherDisplay:10.37,2013-05-14 12:54:00,
2013-05-14 05:56:00,55.3,46.8,29.98,ESE,115,0.0,0.0,73,0.00,SCT,,0.00,WeatherDisplay:10.37,2013-05-14 12:56:00,
2013-05-14 05:58:00,55.3,46.8,29.97,ESE,115,0.0,0.0,73,0.00,SCT,,0.00,WeatherDisplay:10.37,2013-05-14 12:58:00,
2013-05-14 06:00:00,55.2,46.7,29.98,ESE,115,0.0,0.0,73,0.00,SCT,,0.00,WeatherDisplay:10.37,2013-05-14 13:00:00,
2013-05-14 06:03:00,55.2,46.7,29.97,ESE,115,1.0,0.0,73,0.00,SCT,,0.00,WeatherDisplay:10.37,2013-05-14 13:03:00,
2013-05-14 06:05:00,55.2,46.7,29.97,ESE,115,0.0,0.0,73,0.00,SCT,,0.00,WeatherDisplay:10.37,2013-05-14 13:05:00,
2013-05-14 06:08:00,55.1,46.6,29.97,SE,128,2.3,2.3,73,0.00,SCT,,0.00,WeatherDisplay:10.37,2013-05-14 13:08:00,
2013-05-14 06:11:00,55.2,46.7,29.97,ESE,120,2.0,2.0,73,0.00,SCT,,0.00,WeatherDisplay:10.37,2013-05-14 13:11:00,
2013-05-14 06:12:00,55.2,46.7,29.97,ESE,120,2.3,0.0,73,0.00,SCT,,0.00,WeatherDisplay:10.37,2013-05-14 13:12:00,
2013-05-14 06:13:00,55.2,46.7,29.97,ESE,120,0.0,0.0,73,0.00,SCT,,0.00,WeatherDisplay:10.37,2013-05-14 13:13:00,
2013-05-14 06:15:00,55.2,46.7,29.97,ESE,120,0.0,0.0,73,0.00,SCT,,0.00,WeatherDisplay:10.37,2013-05-14 13:15:00,
2013-05-14 06:16:00,55.2,46.7,29.97,SE,134,2.0,2.0,73,0.00,SCT,,0.00,WeatherDisplay:10.37,2013-05-14 13:16:00,
2013-05-14 06:17:00,55.2,47.1,29.97,SE,144,2.3,2.3,74,0.00,SCT,,0.00,WeatherDisplay:10.37,2013-05-14 13:17:00,
2013-05-14 06:18:00,55.2,47.1,29.97,ESE,112,4.6,4.6,74,0.00,SCT,,0.00,WeatherDisplay:10.37,2013-05-14 13:18:00,
2013-05-14 06:19:00,55.2,47.1,29.97,East,97,4.6,4.6,74,0.00,SCT,,0.00,WeatherDisplay:10.37,2013-05-14 13:19:00,
2013-05-14 06:22:00,55.2,47.1,29.97,ESE,121,2.3,2.3,74,0.00,SCT,,0.00,WeatherDisplay:10.37,2013-05-14 13:22:00,
2013-05-14 06:24:00,55.2,47.1,29.97,South,189,0.0,0.6,74,0.00,SCT,,0.00,WeatherDisplay:10.37,2013-05-14 13:24:00,
2013-05-14 06:25:00,55.2,47.1,29.97,SSW,195,0.0,0.6,74,0.00,SCT,,0.00,WeatherDisplay:10.37,2013-05-14 13:25:00,
2013-05-14 06:27:00,55.2,47.1,29.97,NNE,26,3.5,3.5,74,0.00,SCT,,0.00,WeatherDisplay:10.37,2013-05-14 13:27:00,
2013-05-14 06:28:00,55.1,47.0,29.97,NW,308,3.5,0.0,74,0.00,SCT,,0.00,WeatherDisplay:10.37,2013-05-14 13:28:00,
2013-05-14 06:30:00,55.1,47.0,29.97,SSE,160,0.0,3.0,74,0.00,SCT,,0.00,WeatherDisplay:10.37,2013-05-14 13:30:00,
2013-05-14 06:32:00,55.0,47.2,29.97,SE,127,1.2,1.2,75,0.00,SCT,,0.00,WeatherDisplay:10.37,2013-05-14 13:32:00,
2013-05-14 06:33:00,55.0,47.2,29.97,SE,124,3.5,3.5,75,0.00,SCT,,0.00,WeatherDisplay:10.37,2013-05-14 13:33:00,
2013-05-14 06:34:00,55.0,46.9,29.98,SE,133,3.5,3.5,74,0.00,SCT,,0.00,WeatherDisplay:10.37,2013-05-14 13:34:00,
2013-05-14 06:35:00,55.1,46.9,29.98,SE,130,0.0,4.0,74,0.00,SCT,,0.00,WeatherDisplay:10.37,2013-05-14 13:35:00,
2013-05-14 06:36:00,55.3,47.5,29.98,SSW,210,2.3,2.3,75,0.00,SCT,,0.00,WeatherDisplay:10.37,2013-05-14 13:36:00,
2013-05-14 06:37:00,55.3,47.5,29.97,SE,133,3.5,3.5,75,0.00,SCT,,0.00,WeatherDisplay:10.37,2013-05-14 13:37:00,
2013-05-14 06:39:00,55.5,47.3,29.98,SW,232,3.5,3.5,74,0.00,SCT,,0.00,WeatherDisplay:10.37,2013-05-14 13:39:00,
2013-05-14 06:40:00,55.5,47.3,29.98,SW,232,2.3,2.3,74,0.00,SCT,,0.00,WeatherDisplay:10.37,2013-05-14 13:40:00,
2013-05-14 06:41:00,55.6,47.8,29.98,SSE,154,2.3,2.3,75,0.00,SCT,,0.00,WeatherDisplay:10.37,2013-05-14 13:41:00,
2013-05-14 06:43:00,55.7,47.5,29.98,SSE,150,2.3,2.3,74,0.00,SCT,,0.00,WeatherDisplay:10.37,2013-05-14 13:43:00,
2013-05-14 06:45:00,56.1,47.6,29.97,SE,136,3.5,3.5,73,0.00,SCT,,0.00,WeatherDisplay:10.37,2013-05-14 13:45:00,
2013-05-14 06:46:00,56.2,47.7,29.97,SE,136,6.9,6.9,73,0.00,SCT,,0.00,WeatherDisplay:10.37,2013-05-14 13:46:00,
2013-05-14 06:47:00,56.2,47.7,29.97,East,89,5.0,5.0,73,0.00,SCT,,0.00,WeatherDisplay:10.37,2013-05-14 13:47:00,
2013-05-14 06:48:00,56.3,47.8,29.97,SSE,150,4.6,4.6,73,0.00,SCT,,0.00,WeatherDisplay:10.37,2013-05-14 13:48:00,
2013-05-14 06:50:00,56.4,47.9,29.97,South,190,3.5,3.5,73,0.00,SCT,,0.00,WeatherDisplay:10.37,2013-05-14 13:50:00,
2013-05-14 06:52:00,56.6,48.0,29.98,SSE,148,3.5,3.5,73,0.00,SCT,,0.00,WeatherDisplay:10.37,2013-05-14 13:52:00,
2013-05-14 06:53:00,56.7,48.1,29.98,SSE,157,3.5,3.5,73,0.00,SCT,,0.00,WeatherDisplay:10.37,2013-05-14 13:53:00,
2013-05-14 06:56:00,57.0,48.1,29.97,SSE,148,3.5,3.5,72,0.00,SCT,,0.00,WeatherDisplay:10.37,2013-05-14 13:56:00,
2013-05-14 06:57:00,57.1,48.2,29.98,SSW,203,2.3,2.3,72,0.00,SCT,,0.00,WeatherDisplay:10.37,2013-05-14 13:57:00,
2013-05-14 06:58:00,57.3,48.3,29.98,SE,128,3.5,3.5,72,0.00,SCT,,0.00,WeatherDisplay:10.37,2013-05-14 13:58:00,
2013-05-14 06:59:00,57.4,48.1,29.98,SSW,200,2.3,2.3,71,0.00,SCT,,0.00,WeatherDisplay:10.37,2013-05-14 13:59:00,
2013-05-14 07:02:00,57.6,47.9,29.98,ESE,114,8.1,8.1,70,0.00,SCT,,0.00,WeatherDisplay:10.37,2013-05-14 14:02:00,
2013-05-14 07:03:00,57.7,48.4,29.98,WSW,244,2.3,2.3,71,0.00,SCT,,0.00,WeatherDisplay:10.37,2013-05-14 14:03:00,
2013-05-14 07:05:00,57.8,48.1,29.97,South,176,1.2,1.2,70,0.00,SCT,,0.00,WeatherDisplay:10.37,2013-05-14 14:05:00,
2013-05-14 07:07:00,57.8,48.1,29.97,South,173,1.2,1.2,70,0.00,SCT,,0.00,WeatherDisplay:10.37,2013-05-14 14:07:00,
2013-05-14 07:09:00,58.1,48.4,29.97,NNE,26,1.2,1.2,70,0.00,SCT,,0.00,WeatherDisplay:10.37,2013-05-14 14:09:00,
2013-05-14 07:10:00,58.2,48.8,29.97,North,8,2.3,2.3,71,0.00,SCT,,0.00,WeatherDisplay:10.37,2013-05-14 14:10:00,
2013-05-14 07:11:00,58.4,48.7,29.98,North,7,0.0,0.0,70,0.00,SCT,,0.00,WeatherDisplay:10.37,2013-05-14 14:11:00,
2013-05-14 07:12:00,58.4,47.9,29.97,East,92,1.2,1.2,68,0.00,SCT,,0.00,WeatherDisplay:10.37,2013-05-14 14:12:00,
2013-05-14 07:15:00,58.6,48.5,29.97,SW,218,3.5,3.5,69,0.00,SCT,,0.00,WeatherDisplay:10.37,2013-05-14 14:15:00,
2013-05-14 07:17:00,58.7,48.6,29.97,SSW,199,1.2,1.2,69,0.00,SCT,,0.00,WeatherDisplay:10.37,2013-05-14 14:17:00,
2013-05-14 07:20:00,58.8,48.3,29.97,West,278,1.2,0.0,68,0.00,SCT,,0.00,WeatherDisplay:10.37,2013-05-14 14:20:00,
2013-05-14 07:22:00,59.0,48.4,29.98,SSW,209,0.0,0.4,68,0.00,SCT,,0.00,WeatherDisplay:10.37,2013-05-14 14:22:00,
2013-05-14 07:25:00,59.3,47.9,29.98,SE,139,3.5,3.5,66,0.00,SCT,,0.00,WeatherDisplay:10.37,2013-05-14 14:25:00,
2013-05-14 07:26:00,59.4,48.8,29.98,SE,140,3.5,3.5,68,0.00,SCT,,0.00,WeatherDisplay:10.37,2013-05-14 14:26:00,
2013-05-14 07:27:00,59.5,48.5,29.97,SE,139,2.3,2.3,67,0.00,SCT,,0.00,WeatherDisplay:10.37,2013-05-14 14:27:00,
2013-05-14 07:28:00,59.6,48.6,29.98,SE,131,2.3,2.3,67,0.00,SCT,,0.00,WeatherDisplay:10.37,2013-05-14 14:28:00,
2013-05-14 07:30:00,59.9,48.5,29.98,SSE,152,8.1,8.1,66,0.00,SCT,,0.00,WeatherDisplay:10.37,2013-05-14 14:30:00,
2013-05-14 07:31:00,60.1,48.7,29.98,SE,142,1.2,1.2,66,0.00,SCT,,0.00,WeatherDisplay:10.37,2013-05-14 14:31:00,
2013-05-14 07:33:00,60.3,48.5,29.98,SSW,193,3.5,3.5,65,0.00,SCT,,0.00,WeatherDisplay:10.37,2013-05-14 14:33:00,
2013-05-14 07:34:00,60.3,48.5,29.98,SSW,194,3.5,3.5,65,0.00,SCT,,0.00,WeatherDisplay:10.37,2013-05-14 14:34:00,
2013-05-14 07:35:00,60.4,48.2,29.98,ESE,122,4.6,4.6,64,0.00,SCT,,0.00,WeatherDisplay:10.37,2013-05-14 14:35:00,
2013-05-14 07:37:00,60.6,48.8,29.98,South,174,3.5,3.5,65,0.00,SCT,,0.00,WeatherDisplay:10.37,2013-05-14 14:37:00,
2013-05-14 07:38:00,60.7,48.0,29.98,ESE,119,3.5,3.5,63,0.00,SCT,,0.00,WeatherDisplay:10.37,2013-05-14 14:38:00,
2013-05-14 07:39:00,60.7,48.0,29.98,ESE,118,3.5,3.5,63,0.00,SCT,,0.00,WeatherDisplay:10.37,2013-05-14 14:39:00,
2013-05-14 07:40:00,61.0,48.7,29.98,ESE,123,3.5,3.5,64,0.00,SCT,,0.00,WeatherDisplay:10.37,2013-05-14 14:40:00,
2013-05-14 07:44:00,61.2,48.5,29.98,ESE,102,1.2,1.2,63,0.00,SCT,,0.00,WeatherDisplay:10.37,2013-05-14 14:44:00,
2013-05-14 07:45:00,61.4,48.7,29.98,ESE,102,0.0,0.0,63,0.00,SCT,,0.00,WeatherDisplay:10.37,2013-05-14 14:45:00,
2013-05-14 07:49:00,61.9,49.2,29.98,SSE,156,8.0,8.0,63,0.00,SCT,,0.00,WeatherDisplay:10.37,2013-05-14 14:49:00,
2013-05-14 07:50:00,62.0,48.4,29.98,SSE,152,8.1,8.1,61,0.00,SCT,,0.00,WeatherDisplay:10.37,2013-05-14 14:50:00,
2013-05-14 07:51:00,62.1,48.5,29.98,ESE,120,3.0,3.0,61,0.00,SCT,,0.00,WeatherDisplay:10.37,2013-05-14 14:51:00,
2013-05-14 07:54:00,62.3,48.7,29.98,SSW,193,3.5,3.5,61,0.00,SCT,,0.00,WeatherDisplay:10.37,2013-05-14 14:54:00,
2013-05-14 07:55:00,62.3,48.2,29.98,SE,136,5.8,5.8,60,0.00,SCT,,0.00,WeatherDisplay:10.37,2013-05-14 14:55:00,
2013-05-14 07:56:00,62.3,48.7,29.98,ESE,120,5.8,5.8,61,0.00,SCT,,0.00,WeatherDisplay:10.37,2013-05-14 14:56:00,
2013-05-14 07:58:00,62.4,48.8,29.98,SE,125,3.5,3.5,61,0.00,SCT,,0.00,WeatherDisplay:10.37,2013-05-14 14:58:00,
2013-05-14 08:00:00,62.5,48.4,29.98,East,100,4.6,4.6,60,0.00,SCT,,0.00,WeatherDisplay:10.37,2013-05-14 15:00:00,
2013-05-14 08:01:00,62.5,48.4,29.98,SE,139,4.6,4.6,60,0.00,SCT,,0.00,WeatherDisplay:10.37,2013-05-14 15:01:00,
2013-05-14 08:03:00,62.6,48.5,29.98,SSW,199,4.6,4.6,60,0.00,SCT,,0.00,WeatherDisplay:10.37,2013-05-14 15:03:00,
2013-05-14 08:06:00,62.7,48.6,29.98,ESE,116,6.9,6.9,60,0.00,SCT,,0.00,WeatherDisplay:10.37,2013-05-14 15:06:00,
2013-05-14 08:07:00,62.8,48.7,29.98,SE,128,6.9,6.9,60,0.00,SCT,,0.00,WeatherDisplay:10.37,2013-05-14 15:07:00,
2013-05-14 08:08:00,62.9,48.8,29.98,SSW,201,8.1,8.1,60,0.00,SCT,,0.00,WeatherDisplay:10.37,2013-05-14 15:08:00,
2013-05-14 08:09:00,63.0,48.9,29.98,South,180,8.1,8.1,60,0.00,SCT,,0.00,WeatherDisplay:10.37,2013-05-14 15:09:00,
2013-05-14 08:12:00,63.2,49.1,29.98,SSW,192,10.4,10.4,60,0.00,SCT,,0.00,WeatherDisplay:10.37,2013-05-14 15:12:00,
2013-05-14 08:13:00,63.4,48.8,29.98,South,169,3.5,3.5,59,0.00,SCT,,0.00,WeatherDisplay:10.37,2013-05-14 15:13:00,
2013-05-14 08:14:00,63.4,48.8,29.98,SSW,204,3.5,3.5,59,0.00,SCT,,0.00,WeatherDisplay:10.37,2013-05-14 15:14:00,
2013-05-14 08:17:00,63.9,49.3,29.98,SSW,203,3.5,3.5,59,0.00,SCT,,0.00,WeatherDisplay:10.37,2013-05-14 15:17:00,
2013-05-14 08:18:00,64.0,49.4,29.97,ESE,113,5.8,5.8,59,0.00,SCT,,0.00,WeatherDisplay:10.37,2013-05-14 15:18:00,
2013-05-14 08:19:00,64.1,49.5,29.97,SE,144,5.8,5.8,59,0.00,SCT,,0.00,WeatherDisplay:10.37,2013-05-14 15:19:00,
2013-05-14 08:23:00,64.3,49.2,29.98,SSE,150,3.5,3.5,58,0.00,SCT,,0.00,WeatherDisplay:10.37,2013-05-14 15:23:00,
2013-05-14 08:24:00,64.3,49.7,29.98,SE,126,3.5,3.5,59,0.00,SCT,,0.00,WeatherDisplay:10.37,2013-05-14 15:24:00,
2013-05-14 08:27:00,64.6,49.5,29.98,SE,144,3.5,3.5,58,0.00,SCT,,0.00,WeatherDisplay:10.37,2013-05-14 15:27:00,
2013-05-14 08:28:00,64.8,49.2,29.98,SSE,155,5.0,5.0,57,0.00,SCT,,0.00,WeatherDisplay:10.37,2013-05-14 15:28:00,
2013-05-14 08:29:00,64.8,49.2,29.98,SSE,151,3.5,3.5,57,0.00,SCT,,0.00,WeatherDisplay:10.37,2013-05-14 15:29:00,
2013-05-14 08:30:00,64.9,49.3,29.98,South,174,4.6,4.6,57,0.00,SCT,,0.00,WeatherDisplay:10.37,2013-05-14 15:30:00,
2013-05-14 08:32:00,64.9,48.8,29.98,SSW,210,4.6,4.6,56,0.00,SCT,,0.00,WeatherDisplay:10.37,2013-05-14 15:32:00,
2013-05-14 08:34:00,64.6,49.0,29.98,South,174,0.0,0.3,57,0.00,SCT,,0.00,WeatherDisplay:10.37,2013-05-14 15:34:00,
2013-05-14 08:35:00,64.5,49.4,29.98,South,179,0.0,5.0,58,0.00,SCT,,0.00,WeatherDisplay:10.37,2013-05-14 15:35:00,
2013-05-14 08:37:00,64.1,49.0,29.98,South,188,5.8,5.8,58,0.00,SCT,,0.00,WeatherDisplay:10.37,2013-05-14 15:37:00,
2013-05-14 08:40:00,64.0,49.4,29.98,SSE,147,1.0,9.0,59,0.00,SCT,,0.00,WeatherDisplay:10.37,2013-05-14 15:40:00,
2013-05-14 08:41:00,64.2,49.6,29.98,SSW,208,8.1,8.1,59,0.00,SCT,,0.00,WeatherDisplay:10.37,2013-05-14 15:41:00,
2013-05-14 08:42:00,64.2,49.6,29.98,SSW,207,8.1,8.1,59,0.00,SCT,,0.00,WeatherDisplay:10.37,2013-05-14 15:42:00,
2013-05-14 08:43:00,64.3,49.2,29.98,SW,228,8.1,8.1,58,0.00,SCT,,0.00,WeatherDisplay:10.37,2013-05-14 15:43:00,
2013-05-14 08:45:00,64.5,49.4,29.98,SSW,201,4.0,4.0,58,0.00,SCT,,0.00,WeatherDisplay:10.37,2013-05-14 15:45:00,
2013-05-14 08:47:00,64.7,49.6,29.98,ESE,118,1.2,1.2,58,0.00,SCT,,0.00,WeatherDisplay:10.37,2013-05-14 15:47:00,
2013-05-14 08:48:00,64.9,50.2,29.99,ESE,117,1.2,1.2,59,0.00,SCT,,0.00,WeatherDisplay:10.37,2013-05-14 15:48:00,
2013-05-14 08:50:00,65.2,49.6,29.99,NNE,31,2.3,2.3,57,0.00,SCT,,0.00,WeatherDisplay:10.37,2013-05-14 15:50:00,
2013-05-14 08:51:00,65.3,50.1,29.99,SE,129,1.2,1.2,58,0.00,SCT,,0.00,WeatherDisplay:10.37,2013-05-14 15:51:00,
2013-05-14 08:52:00,65.4,50.2,29.98,SE,124,2.3,2.3,58,0.00,SCT,,0.00,WeatherDisplay:10.37,2013-05-14 15:52:00,
2013-05-14 08:53:00,65.5,49.9,29.98,South,174,3.5,3.5,57,0.00,SCT,,0.00,WeatherDisplay:10.37,2013-05-14 15:53:00,
2013-05-14 08:57:00,66.0,49.8,29.98,SSE,155,3.5,3.5,56,0.00,SCT,,0.00,WeatherDisplay:10.37,2013-05-14 15:57:00,
2013-05-14 08:58:00,66.2,50.0,29.98,South,175,5.8,5.8,56,0.00,SCT,,0.00,WeatherDisplay:10.37,2013-05-14 15:58:00,
2013-05-14 08:59:00,66.2,50.0,29.98,SE,126,3.5,3.5,56,0.00,SCT,,0.00,WeatherDisplay:10.37,2013-05-14 15:59:00,
2013-05-14 09:02:00,66.7,50.0,29.98,SW,215,4.6,4.6,55,0.00,SCT,,0.00,WeatherDisplay:10.37,2013-05-14 16:02:00,
2013-05-14 09:03:00,66.7,50.0,29.98,SW,216,4.6,4.6,55,0.00,SCT,,0.00,WeatherDisplay:10.37,2013-05-14 16:03:00,
2013-05-14 09:04:00,66.8,50.1,29.99,South,189,3.5,3.5,55,0.00,SCT,,0.00,WeatherDisplay:10.37,2013-05-14 16:04:00,
2013-05-14 09:05:00,66.9,50.2,29.99,ESE,122,3.5,3.5,55,0.00,SCT,,0.00,WeatherDisplay:10.37,2013-05-14 16:05:00,
2013-05-14 09:07:00,66.9,49.7,29.99,SSE,160,5.8,5.8,54,0.00,SCT,,0.00,WeatherDisplay:10.37,2013-05-14 16:07:00,
2013-05-14 09:09:00,67.0,50.3,29.99,SE,141,9.0,9.0,55,0.00,SCT,,0.00,WeatherDisplay:10.37,2013-05-14 16:09:00,
2013-05-14 09:10:00,67.0,50.3,29.99,SSE,162,2.0,9.0,55,0.00,SCT,,0.00,WeatherDisplay:10.37,2013-05-14 16:10:00,
2013-05-14 09:12:00,67.1,50.4,29.99,SE,129,8.1,8.1,55,0.00,SCT,,0.00,WeatherDisplay:10.37,2013-05-14 16:12:00,
2013-05-14 09:13:00,67.2,50.5,29.99,SE,141,8.1,8.1,55,0.00,SCT,,0.00,WeatherDisplay:10.37,2013-05-14 16:13:00,
2013-05-14 09:14:00,67.3,50.1,29.99,South,186,3.5,3.5,54,0.00,SCT,,0.00,WeatherDisplay:10.37,2013-05-14 16:14:00,
2013-05-14 09:15:00,67.3,50.6,29.99,SE,142,2.3,2.3,55,0.00,SCT,,0.00,WeatherDisplay:10.37,2013-05-14 16:15:00,
2013-05-14 09:16:00,67.4,50.7,29.99,SE,141,5.8,5.8,55,0.00,SCT,,0.00,WeatherDisplay:10.37,2013-05-14 16:16:00,
2013-05-14 09:17:00,67.5,50.3,29.99,SW,234,5.8,5.8,54,0.00,SCT,,0.00,WeatherDisplay:10.37,2013-05-14 16:17:00,
2013-05-14 09:19:00,67.5,50.3,29.99,WNW,291,2.3,2.3,54,0.00,SCT,,0.00,WeatherDisplay:10.37,2013-05-14 16:19:00,
2013-05-14 09:21:00,67.7,50.5,29.99,SE,131,10.4,10.4,54,0.00,SCT,,0.00,WeatherDisplay:10.37,2013-05-14 16:21:00,
2013-05-14 09:22:00,67.7,50.5,29.99,East,88,4.0,4.0,54,0.00,SCT,,0.00,WeatherDisplay:10.37,2013-05-14 16:22:00,
2013-05-14 09:24:00,67.9,51.1,29.99,SSE,160,3.5,3.5,55,0.00,SCT,,0.00,WeatherDisplay:10.37,2013-05-14 16:24:00,
2013-05-14 09:26:00,68.0,50.7,29.99,East,90,2.0,2.0,54,0.00,SCT,,0.00,WeatherDisplay:10.37,2013-05-14 16:26:00,
2013-05-14 09:28:00,68.1,50.3,29.98,SSE,163,9.2,9.2,53,0.00,SCT,,0.00,WeatherDisplay:10.37,2013-05-14 16:28:00,
2013-05-14 09:29:00,68.2,50.4,29.99,SE,124,9.2,9.2,53,0.00,SCT,,0.00,WeatherDisplay:10.37,2013-05-14 16:29:00,
2013-05-14 09:30:00,68.3,50.5,29.99,SSE,167,3.5,3.5,53,0.00,SCT,,0.00,WeatherDisplay:10.37,2013-05-14 16:30:00,
2013-05-14 09:31:00,68.5,51.2,29.99,SE,140,2.3,2.3,54,0.00,SCT,,0.00,WeatherDisplay:10.37,2013-05-14 16:31:00,
2013-05-14 09:32:00,68.5,50.7,29.99,South,170,2.3,2.3,53,0.00,SCT,,0.00,WeatherDisplay:10.37,2013-05-14 16:32:00,
2013-05-14 09:33:00,68.7,51.4,29.99,SSE,147,3.5,3.5,54,0.00,SCT,,0.00,WeatherDisplay:10.37,2013-05-14 16:33:00,
2013-05-14 09:35:00,69.0,51.2,29.99,SW,221,4.6,4.6,53,0.00,SCT,,0.00,WeatherDisplay:10.37,2013-05-14 16:35:00,
2013-05-14 09:37:00,69.3,50.9,29.99,SSE,164,3.5,3.5,52,0.00,SCT,,0.00,WeatherDisplay:10.37,2013-05-14 16:37:00,
2013-05-14 09:38:00,69.4,51.0,29.99,ENE,72,5.8,5.8,52,0.00,SCT,,0.00,WeatherDisplay:10.37,2013-05-14 16:38:00,
2013-05-14 09:40:00,69.6,50.7,29.99,SE,136,4.0,4.0,51,0.00,SCT,,0.00,WeatherDisplay:10.37,2013-05-14 16:40:00,
2013-05-14 09:42:00,69.9,50.4,29.99,SE,138,4.6,4.6,50,0.00,SCT,,0.00,WeatherDisplay:10.37,2013-05-14 16:42:00,
2013-05-14 09:43:00,69.9,50.9,29.99,SE,143,8.0,8.0,51,0.00,SCT,,0.00,WeatherDisplay:10.37,2013-05-14 16:43:00,
2013-05-14 09:44:00,70.0,50.5,29.99,ESE,112,8.1,8.1,50,0.00,SCT,,0.00,WeatherDisplay:10.37,2013-05-14 16:44:00,
2013-05-14 09:45:00,70.0,50.5,29.99,SE,139,1.2,1.2,50,0.00,SCT,,0.00,WeatherDisplay:10.37,2013-05-14 16:45:00,
2013-05-14 09:48:00,70.3,50.2,29.98,SE,124,4.6,4.6,49,0.00,SCT,,0.00,WeatherDisplay:10.37,2013-05-14 16:48:00,
2013-05-14 09:49:00,70.4,49.8,29.99,SSE,156,3.5,3.5,48,0.00,SCT,,0.00,WeatherDisplay:10.37,2013-05-14 16:49:00,
2013-05-14 09:51:00,70.5,50.4,29.99,SE,145,2.3,2.3,49,0.00,SCT,,0.00,WeatherDisplay:10.37,2013-05-14 16:51:00,
2013-05-14 09:54:00,70.5,50.4,29.98,SE,134,3.5,3.5,49,0.00,SCT,,0.00,WeatherDisplay:10.37,2013-05-14 16:54:00,
2013-05-14 09:56:00,70.2,50.1,29.98,South,171,3.5,3.5,49,0.00,SCT,,0.00,WeatherDisplay:10.37,2013-05-14 16:56:00,
2013-05-14 09:59:00,70.3,50.2,29.99,SE,141,4.6,4.6,49,0.00,SCT,,0.00,WeatherDisplay:10.37,2013-05-14 16:59:00,
2013-05-14 10:00:00,70.4,50.3,29.98,SE,131,4.6,4.6,49,0.00,SCT,,0.00,WeatherDisplay:10.37,2013-05-14 17:00:00,
2013-05-14 10:01:00,70.6,50.5,29.99,SE,128,3.5,3.5,49,0.00,SCT,,0.00,WeatherDisplay:10.37,2013-05-14 17:01:00,
2013-05-14 10:02:00,70.6,50.5,29.99,SE,127,3.5,3.5,49,0.00,SCT,,0.00,WeatherDisplay:10.37,2013-05-14 17:02:00,
2013-05-14 10:05:00,70.8,50.1,29.99,SSE,156,8.1,8.1,48,0.00,SCT,,0.00,WeatherDisplay:10.37,2013-05-14 17:05:00,
2013-05-14 10:07:00,71.0,50.3,29.99,South,177,8.1,8.1,48,0.00,SCT,,0.00,WeatherDisplay:10.37,2013-05-14 17:07:00,
2013-05-14 10:10:00,71.3,50.6,29.99,SSE,150,3.5,3.5,48,0.00,SCT,,0.00,WeatherDisplay:10.37,2013-05-14 17:10:00,
2013-05-14 10:12:00,71.5,50.2,29.99,SE,127,8.1,8.1,47,0.00,SCT,,0.00,WeatherDisplay:10.37,2013-05-14 17:12:00,
2013-05-14 10:13:00,71.5,50.2,29.99,SE,132,8.1,8.1,47,0.00,SCT,,0.00,WeatherDisplay:10.37,2013-05-14 17:13:00,
2013-05-14 10:15:00,71.3,50.6,29.99,ESE,114,3.5,3.5,48,0.00,SCT,,0.00,WeatherDisplay:10.37,2013-05-14 17:15:00,
2013-05-14 10:18:00,71.4,50.7,29.99,SSW,196,2.3,2.3,48,0.00,SCT,,0.00,WeatherDisplay:10.37,2013-05-14 17:18:00,
2013-05-14 10:19:00,71.4,50.1,29.99,ESE,120,3.5,3.5,47,0.00,SCT,,0.00,WeatherDisplay:10.37,2013-05-14 17:19:00,
2013-05-14 10:20:00,71.4,50.1,29.99,SE,137,3.5,3.5,47,0.00,SCT,,0.00,WeatherDisplay:10.37,2013-05-14 17:20:00,
2013-05-14 10:23:00,71.7,51.0,29.99,East,85,3.5,3.5,48,0.00,SCT,,0.00,WeatherDisplay:10.37,2013-05-14 17:23:00,
2013-05-14 10:24:00,71.8,50.5,29.99,SE,134,3.5,3.5,47,0.00,SCT,,0.00,WeatherDisplay:10.37,2013-05-14 17:24:00,
2013-05-14 10:25:00,72.0,51.2,29.99,SSW,196,4.0,4.0,48,0.00,SCT,,0.00,WeatherDisplay:10.37,2013-05-14 17:25:00,
2013-05-14 10:26:00,72.1,50.8,29.99,South,180,4.6,4.6,47,0.00,SCT,,0.00,WeatherDisplay:10.37,2013-05-14 17:26:00,
2013-05-14 10:28:00,72.2,50.8,29.99,ESE,119,9.2,9.2,47,0.00,SCT,,0.00,WeatherDisplay:10.37,2013-05-14 17:28:00,
2013-05-14 10:29:00,72.2,50.8,29.99,SSE,164,6.9,6.9,47,0.00,SCT,,0.00,WeatherDisplay:10.37,2013-05-14 17:29:00,
2013-05-14 10:30:00,72.1,50.8,29.99,SE,141,8.1,8.1,47,0.00,SCT,,0.00,WeatherDisplay:10.37,2013-05-14 17:30:00,
2013-05-14 10:31:00,72.2,50.8,29.99,SSE,156,8.1,8.1,47,0.00,SCT,,0.00,WeatherDisplay:10.37,2013-05-14 17:31:00,
2013-05-14 10:33:00,72.2,50.8,29.99,South,177,6.9,6.9,47,0.00,SCT,,0.00,WeatherDisplay:10.37,2013-05-14 17:33:00,
2013-05-14 10:34:00,72.2,51.4,29.99,SE,136,6.9,6.9,48,0.00,SCT,,0.00,WeatherDisplay:10.37,2013-05-14 17:34:00,
2013-05-14 10:35:00,72.4,51.6,29.99,South,184,4.0,4.0,48,0.00,SCT,,0.00,WeatherDisplay:10.37,2013-05-14 17:35:00,
2013-05-14 10:37:00,72.7,50.7,29.99,SW,232,4.6,4.6,46,0.00,SCT,,0.00,WeatherDisplay:10.37,2013-05-14 17:37:00,
2013-05-14 10:39:00,72.9,51.5,29.99,ESE,107,2.3,2.3,47,0.00,SCT,,0.00,WeatherDisplay:10.37,2013-05-14 17:39:00,
2013-05-14 10:40:00,72.9,50.9,29.99,SE,126,2.3,2.3,46,0.00,SCT,,0.00,WeatherDisplay:10.37,2013-05-14 17:40:00,
2013-05-14 10:42:00,73.3,51.8,29.99,SE,143,5.0,5.0,47,0.00,SCT,,0.00,WeatherDisplay:10.37,2013-05-14 17:42:00,
2013-05-14 10:45:00,73.6,51.5,29.99,SSW,211,3.5,3.5,46,0.00,SCT,,0.00,WeatherDisplay:10.37,2013-05-14 17:45:00,
2013-05-14 10:46:00,73.7,51.6,30.00,SE,142,8.0,8.0,46,0.00,SCT,,0.00,WeatherDisplay:10.37,2013-05-14 17:46:00,
2013-05-14 10:47:00,73.8,51.1,29.99,SW,216,8.1,8.1,45,0.00,SCT,,0.00,WeatherDisplay:10.37,2013-05-14 17:47:00,
2013-05-14 10:48:00,73.8,51.1,29.99,East,82,1.2,1.2,45,0.00,SCT,,0.00,WeatherDisplay:10.37,2013-05-14 17:48:00,
2013-05-14 10:50:00,73.8,51.1,29.99,SW,216,3.5,3.5,45,0.00,SCT,,0.00,WeatherDisplay:10.37,2013-05-14 17:50:00,
2013-05-14 10:52:00,73.9,51.2,30.00,SSW,202,4.6,4.6,45,0.00,SCT,,0.00,WeatherDisplay:10.37,2013-05-14 17:52:00,
2013-05-14 10:53:00,74.0,51.9,29.99,ESE,114,5.0,5.0,46,0.00,SCT,,0.00,WeatherDisplay:10.37,2013-05-14 17:53:00,
2013-05-14 10:54:00,74.1,50.8,30.00,SE,144,5.8,5.8,44,0.00,SCT,,0.00,WeatherDisplay:10.37,2013-05-14 17:54:00,
2013-05-14 10:55:00,74.3,51.6,30.00,ESE,122,7.0,7.0,45,0.00,SCT,,0.00,WeatherDisplay:10.37,2013-05-14 17:55:00,
2013-05-14 10:56:00,74.3,51.6,30.00,SSW,206,8.1,8.1,45,0.00,SCT,,0.00,WeatherDisplay:10.37,2013-05-14 17:56:00,
2013-05-14 10:57:00,74.3,51.6,30.00,East,86,8.1,8.1,45,0.00,SCT,,0.00,WeatherDisplay:10.37,2013-05-14 17:57:00,
2013-05-14 10:58:00,74.4,51.1,30.00,ESE,112,8.1,8.1,44,0.00,SCT,,0.00,WeatherDisplay:10.37,2013-05-14 17:58:00,
2013-05-14 11:00:00,74.5,51.2,30.00,SE,132,6.9,6.9,44,0.00,SCT,,0.00,WeatherDisplay:10.37,2013-05-14 18:00:00,
2013-05-14 11:02:00,74.4,51.1,30.00,SSE,152,3.5,3.5,44,0.00,SCT,,0.00,WeatherDisplay:10.37,2013-05-14 18:02:00,
2013-05-14 11:03:00,74.5,51.2,30.00,SSE,164,4.0,4.0,44,0.00,SCT,,0.00,WeatherDisplay:10.37,2013-05-14 18:03:00,
2013-05-14 11:05:00,74.5,51.2,30.00,SE,137,2.0,9.0,44,0.00,SCT,,0.00,WeatherDisplay:10.37,2013-05-14 18:05:00,
2013-05-14 11:06:00,74.6,50.6,30.00,SE,137,7.0,7.0,43,0.00,SCT,,0.00,WeatherDisplay:10.37,2013-05-14 18:06:00,
2013-05-14 11:07:00,74.6,51.2,30.00,East,100,8.1,8.1,44,0.00,SCT,,0.00,WeatherDisplay:10.37,2013-05-14 18:07:00,
2013-05-14 11:09:00,74.5,51.2,30.00,East,100,2.3,2.3,44,0.00,SCT,,0.00,WeatherDisplay:10.37,2013-05-14 18:09:00,
2013-05-14 11:10:00,74.5,51.2,30.00,SE,134,5.8,5.8,44,0.00,SCT,,0.00,WeatherDisplay:10.37,2013-05-14 18:10:00,
2013-05-14 11:11:00,74.6,51.2,30.00,SW,217,5.8,5.8,44,0.00,SCT,,0.00,WeatherDisplay:10.37,2013-05-14 18:11:00,
2013-05-14 11:13:00,74.5,51.2,30.00,SSW,209,3.5,3.5,44,0.00,SCT,,0.00,WeatherDisplay:10.37,2013-05-14 18:13:00,
2013-05-14 11:15:00,74.5,51.2,30.00,East,83,3.5,3.5,44,0.00,SCT,,0.00,WeatherDisplay:10.37,2013-05-14 18:15:00,
2013-05-14 11:16:00,74.6,51.2,30.00,South,177,3.5,3.5,44,0.00,SCT,,0.00,WeatherDisplay:10.37,2013-05-14 18:16:00,
2013-05-14 11:17:00,74.5,51.2,30.00,SSW,211,3.5,3.5,44,0.00,SCT,,0.00,WeatherDisplay:10.37,2013-05-14 18:17:00,
2013-05-14 11:19:00,74.6,51.2,30.00,SSE,152,2.3,2.3,44,0.00,SCT,,0.00,WeatherDisplay:10.37,2013-05-14 18:19:00,
2013-05-14 11:21:00,74.8,51.4,30.00,SW,219,2.3,2.3,44,0.00,SCT,,0.00,WeatherDisplay:10.37,2013-05-14 18:21:00,
2013-05-14 11:22:00,74.8,51.4,30.00,SW,220,2.3,2.3,44,0.00,SCT,,0.00,WeatherDisplay:10.37,2013-05-14 18:22:00,
2013-05-14 11:24:00,74.8,50.8,30.00,SE,138,2.3,2.3,43,0.00,SCT,,0.00,WeatherDisplay:10.37,2013-05-14 18:24:00,
2013-05-14 11:25:00,74.8,50.8,30.00,SW,219,3.5,3.5,43,0.00,SCT,,0.00,WeatherDisplay:10.37,2013-05-14 18:25:00,
2013-05-14 11:26:00,74.9,51.5,30.00,NE,39,1.2,1.2,44,0.00,SCT,,0.00,WeatherDisplay:10.37,2013-05-14 18:26:00,
2013-05-14 11:27:00,75.0,51.0,30.00,SSW,202,2.3,2.3,43,0.00,SCT,,0.00,WeatherDisplay:10.37,2013-05-14 18:27:00,
2013-05-14 11:28:00,75.0,51.6,30.00,SSW,202,2.3,2.3,44,0.00,SCT,,0.00,WeatherDisplay:10.37,2013-05-14 18:28:00,
2013-05-14 11:29:00,75.1,51.7,30.00,SE,136,3.5,3.5,44,0.00,SCT,,0.00,WeatherDisplay:10.37,2013-05-14 18:29:00,
2013-05-14 11:30:00,75.2,50.5,30.00,SE,135,5.0,5.0,42,0.00,SCT,,0.00,WeatherDisplay:10.37,2013-05-14 18:30:00,
2013-05-14 11:31:00,75.4,50.7,30.00,SW,230,4.6,4.6,42,0.00,SCT,,0.00,WeatherDisplay:10.37,2013-05-14 18:31:00,
2013-05-14 11:33:00,75.6,51.5,30.00,SE,128,2.3,2.3,43,0.00,SCT,,0.00,WeatherDisplay:10.37,2013-05-14 18:33:00,
2013-05-14 11:34:00,75.8,51.1,30.00,ENE,58,2.3,2.3,42,0.00,SCT,,0.00,WeatherDisplay:10.37,2013-05-14 18:34:00,
2013-05-14 11:36:00,76.0,50.6,30.00,South,171,3.5,3.5,41,0.00,SCT,,0.00,WeatherDisplay:10.37,2013-05-14 18:36:00,
2013-05-14 11:38:00,76.1,50.7,30.00,ESE,118,3.5,3.5,41,0.00,SCT,,0.00,WeatherDisplay:10.37,2013-05-14 18:38:00,
2013-05-14 11:39:00,76.1,51.3,30.00,SSE,147,2.3,2.3,42,0.00,SCT,,0.00,WeatherDisplay:10.37,2013-05-14 18:39:00,
2013-05-14 11:41:00,76.4,51.0,30.00,SE,140,3.0,3.0,41,0.00,SCT,,0.00,WeatherDisplay:10.37,2013-05-14 18:41:00,
2013-05-14 11:42:00,76.5,51.0,30.00,NNE,20,3.5,3.5,41,0.00,SCT,,0.00,WeatherDisplay:10.37,2013-05-14 18:42:00,
2013-05-14 11:43:00,76.5,51.0,30.00,West,262,3.5,3.5,41,0.00,SCT,,0.00,WeatherDisplay:10.37,2013-05-14 18:43:00,
2013-05-14 11:45:00,76.7,51.2,30.00,East,83,1.2,1.2,41,0.00,SCT,,0.00,WeatherDisplay:10.37,2013-05-14 18:45:00,
2013-05-14 11:46:00,76.7,50.6,30.00,SSE,151,10.4,10.4,40,0.00,SCT,,0.00,WeatherDisplay:10.37,2013-05-14 18:46:00,
2013-05-14 11:47:00,76.8,51.3,30.00,NNW,341,10.4,10.4,41,0.00,SCT,,0.00,WeatherDisplay:10.37,2013-05-14 18:47:00,
2013-05-14 11:48:00,76.9,50.7,30.00,SE,133,4.0,4.0,40,0.00,SCT,,0.00,WeatherDisplay:10.37,2013-05-14 18:48:00,
2013-05-14 11:49:00,76.9,50.7,30.00,SE,140,5.0,5.0,40,0.00,SCT,,0.00,WeatherDisplay:10.37,2013-05-14 18:49:00,
2013-05-14 11:50:00,77.0,50.8,30.00,SSW,192,4.6,4.6,40,0.00,SCT,,0.00,WeatherDisplay:10.37,2013-05-14 18:50:00,
2013-05-14 11:53:00,77.2,51.0,30.00,South,175,4.6,4.6,40,0.00,SCT,,0.00,WeatherDisplay:10.37,2013-05-14 18:53:00,
2013-05-14 11:54:00,77.2,50.3,30.00,SW,222,3.0,3.0,39,0.00,SCT,,0.00,WeatherDisplay:10.37,2013-05-14 18:54:00,
2013-05-14 11:55:00,77.0,50.8,30.00,ESE,119,6.9,6.9,40,0.00,SCT,,0.00,WeatherDisplay:10.37,2013-05-14 18:55:00,
2013-05-14 11:58:00,77.0,50.8,30.00,South,173,2.3,2.3,40,0.00,SCT,,0.00,WeatherDisplay:10.37,2013-05-14 18:58:00,
2013-05-14 11:59:00,77.0,50.8,30.00,SE,146,3.0,3.0,40,0.00,SCT,,0.00,WeatherDisplay:10.37,2013-05-14 18:59:00,
2013-05-14 12:00:00,77.0,50.8,29.99,North,6,3.5,3.5,40,0.00,SCT,,0.00,WeatherDisplay:10.37,2013-05-14 19:00:00,
2013-05-14 12:04:00,77.0,50.8,30.00,SW,215,3.5,3.5,40,0.00,SCT,,0.00,WeatherDisplay:10.37,2013-05-14 19:04:00,
2013-05-14 12:05:00,77.1,50.9,30.00,South,188,3.5,3.5,40,0.00,SCT,,0.00,WeatherDisplay:10.37,2013-05-14 19:05:00,
2013-05-14 12:09:00,77.2,51.0,29.99,SE,128,2.3,2.3,40,0.00,SCT,,0.00,WeatherDisplay:10.37,2013-05-14 19:09:00,
2013-05-14 12:10:00,77.2,51.0,29.99,ESE,120,7.0,7.0,40,0.00,SCT,,0.00,WeatherDisplay:10.37,2013-05-14 19:10:00,
2013-05-14 12:11:00,77.3,51.1,30.00,SE,128,6.9,6.9,40,0.00,SCT,,0.00,WeatherDisplay:10.37,2013-05-14 19:11:00,
2013-05-14 12:13:00,77.4,51.2,29.99,SE,129,4.6,4.6,40,0.00,SCT,,0.00,WeatherDisplay:10.37,2013-05-14 19:13:00,
2013-05-14 12:14:00,77.5,50.6,29.99,South,189,8.1,8.1,39,0.00,SCT,,0.00,WeatherDisplay:10.37,2013-05-14 19:14:00,
2013-05-14 12:15:00,77.5,50.6,30.00,SSE,156,4.6,4.6,39,0.00,SCT,,0.00,WeatherDisplay:10.37,2013-05-14 19:15:00,
2013-05-14 12:16:00,77.5,50.6,29.99,SSE,156,3.5,3.5,39,0.00,SCT,,0.00,WeatherDisplay:10.37,2013-05-14 19:16:00,
2013-05-14 12:18:00,77.5,50.6,30.00,SE,137,9.0,9.0,39,0.00,SCT,,0.00,WeatherDisplay:10.37,2013-05-14 19:18:00,
2013-05-14 12:19:00,77.5,49.9,29.99,WNW,287,9.2,9.2,38,0.00,SCT,,0.00,WeatherDisplay:10.37,2013-05-14 19:19:00,
2013-05-14 12:21:00,77.4,51.2,30.00,ESE,121,11.0,11.0,40,0.00,SCT,,0.00,WeatherDisplay:10.37,2013-05-14 19:21:00,
2013-05-14 12:23:00,77.4,50.5,30.00,SSE,156,4.6,4.6,39,0.00,SCT,,0.00,WeatherDisplay:10.37,2013-05-14 19:23:00,
2013-05-14 12:24:00,77.4,49.8,29.99,ESE,111,12.7,12.7,38,0.00,SCT,,0.00,WeatherDisplay:10.37,2013-05-14 19:24:00,
2013-05-14 12:25:00,77.4,50.5,29.99,ESE,111,12.7,12.7,39,0.00,SCT,,0.00,WeatherDisplay:10.37,2013-05-14 19:25:00,
2013-05-14 12:27:00,77.4,50.5,29.99,NE,56,4.6,4.6,39,0.00,SCT,,0.00,WeatherDisplay:10.37,2013-05-14 19:27:00,
2013-05-14 12:29:00,77.3,49.7,29.99,South,174,5.8,5.8,38,0.00,SCT,,0.00,WeatherDisplay:10.37,2013-05-14 19:29:00,
2013-05-14 12:30:00,77.3,49.7,29.99,SSW,209,5.8,5.8,38,0.00,SCT,,0.00,WeatherDisplay:10.37,2013-05-14 19:30:00,
2013-05-14 12:32:00,77.2,50.3,29.99,ESE,118,7.0,7.0,39,0.00,SCT,,0.00,WeatherDisplay:10.37,2013-05-14 19:32:00,
2013-05-14 12:33:00,77.2,49.6,29.99,WSW,244,11.5,11.5,38,0.00,SCT,,0.00,WeatherDisplay:10.37,2013-05-14 19:33:00,
2013-05-14 12:34:00,77.2,50.3,29.99,South,170,4.6,4.6,39,0.00,SCT,,0.00,WeatherDisplay:10.37,2013-05-14 19:34:00,
2013-05-14 12:35:00,77.2,50.3,29.99,SE,142,2.0,12.0,39,0.00,SCT,,0.00,WeatherDisplay:10.37,2013-05-14 19:35:00,
2013-05-14 12:36:00,77.2,50.3,29.99,South,177,6.9,6.9,39,0.00,SCT,,0.00,WeatherDisplay:10.37,2013-05-14 19:36:00,
2013-05-14 12:37:00,77.2,49.6,29.99,ENE,68,6.9,6.9,38,0.00,SCT,,0.00,WeatherDisplay:10.37,2013-05-14 19:37:00,
2013-05-14 12:38:00,77.2,50.3,29.99,SE,137,7.0,7.0,39,0.00,SCT,,0.00,WeatherDisplay:10.37,2013-05-14 19:38:00,
2013-05-14 12:40:00,77.2,50.3,29.99,SE,134,11.5,11.5,39,0.00,SCT,,0.00,WeatherDisplay:10.37,2013-05-14 19:40:00,
2013-05-14 12:41:00,77.1,50.2,29.99,SSE,155,8.1,8.1,39,0.00,SCT,,0.00,WeatherDisplay:10.37,2013-05-14 19:41:00,
2013-05-14 12:42:00,77.0,50.1,29.99,WSW,238,8.1,8.1,39,0.00,SCT,,0.00,WeatherDisplay:10.37,2013-05-14 19:42:00,
2013-05-14 12:43:00,77.0,50.1,29.99,SE,140,5.8,5.8,39,0.00,SCT,,0.00,WeatherDisplay:10.37,2013-05-14 19:43:00,
2013-05-14 12:45:00,77.0,50.1,29.99,SE,137,6.9,6.9,39,0.00,SCT,,0.00,WeatherDisplay:10.37,2013-05-14 19:45:00,
2013-05-14 12:46:00,77.0,49.4,29.99,SSE,168,8.1,8.1,38,0.00,SCT,,0.00,WeatherDisplay:10.37,2013-05-14 19:46:00,
2013-05-14 12:47:00,77.1,49.5,29.99,South,181,3.5,3.5,38,0.00,SCT,,0.00,WeatherDisplay:10.37,2013-05-14 19:47:00,
2013-05-14 12:48:00,77.0,49.4,29.99,SE,138,3.5,3.5,38,0.00,SCT,,0.00,WeatherDisplay:10.37,2013-05-14 19:48:00,
2013-05-14 12:49:00,76.9,49.4,29.99,SE,139,8.1,8.1,38,0.00,SCT,,0.00,WeatherDisplay:10.37,2013-05-14 19:49:00,
2013-05-14 12:50:00,76.9,49.4,29.99,ESE,118,9.2,9.2,38,0.00,SCT,,0.00,WeatherDisplay:10.37,2013-05-14 19:50:00,
2013-05-14 12:52:00,76.9,49.4,29.99,SSE,149,5.8,5.8,38,0.00,SCT,,0.00,WeatherDisplay:10.37,2013-05-14 19:52:00,
2013-05-14 12:53:00,76.9,49.4,29.99,SSE,150,3.5,3.5,38,0.00,SCT,,0.00,WeatherDisplay:10.37,2013-05-14 19:53:00,
2013-05-14 12:55:00,76.9,49.4,29.99,SSW,208,8.1,8.1,38,0.00,SCT,,0.00,WeatherDisplay:10.37,2013-05-14 19:55:00,
2013-05-14 12:56:00,76.9,49.4,29.99,SSE,160,8.1,8.1,38,0.00,SCT,,0.00,WeatherDisplay:10.37,2013-05-14 19:56:00,
2013-05-14 12:57:00,77.0,49.4,29.99,SSE,149,6.9,6.9,38,0.00,SCT,,0.00,WeatherDisplay:10.37,2013-05-14 19:57:00,
2013-05-14 12:58:00,77.0,49.4,29.99,ESE,118,5.8,5.8,38,0.00,SCT,,0.00,WeatherDisplay:10.37,2013-05-14 19:58:00,
2013-05-14 13:00:00,77.0,49.4,29.99,SE,129,6.9,6.9,38,0.00,SCT,,0.00,WeatherDisplay:10.37,2013-05-14 20:00:00,
2013-05-14 13:01:00,77.0,48.7,29.99,ESE,121,4.6,4.6,37,0.00,SCT,,0.00,WeatherDisplay:10.37,2013-05-14 20:01:00,
2013-05-14 13:03:00,76.9,48.6,29.99,ESE,103,11.5,11.5,37,0.00,SCT,,0.00,WeatherDisplay:10.37,2013-05-14 20:03:00,
2013-05-14 13:05:00,77.0,49.4,29.99,SSE,163,4.6,4.6,38,0.00,SCT,,0.00,WeatherDisplay:10.37,2013-05-14 20:05:00,
2013-05-14 13:06:00,77.2,48.9,29.99,ENE,73,3.5,3.5,37,0.00,SCT,,0.00,WeatherDisplay:10.37,2013-05-14 20:06:00,
2013-05-14 13:07:00,77.2,48.9,29.99,SE,146,6.0,6.0,37,0.00,SCT,,0.00,WeatherDisplay:10.37,2013-05-14 20:07:00,
2013-05-14 13:08:00,77.3,49.0,29.99,SE,142,5.8,5.8,37,0.00,SCT,,0.00,WeatherDisplay:10.37,2013-05-14 20:08:00,
2013-05-14 13:09:00,77.3,49.0,29.99,SW,227,5.8,5.8,37,0.00,SCT,,0.00,WeatherDisplay:10.37,2013-05-14 20:09:00,
2013-05-14 13:11:00,77.3,48.3,29.99,East,101,3.5,3.5,36,0.00,SCT,,0.00,WeatherDisplay:10.37,2013-05-14 20:11:00,
2013-05-14 13:13:00,77.3,49.0,29.99,SE,135,7.0,7.0,37,0.00,SCT,,0.00,WeatherDisplay:10.37,2013-05-14 20:13:00,
2013-05-14 13:14:00,77.3,49.0,29.99,SE,138,9.2,9.2,37,0.00,SCT,,0.00,WeatherDisplay:10.37,2013-05-14 20:14:00,
2013-05-14 13:15:00,77.4,49.0,29.99,SSE,155,3.0,9.0,37,0.00,SCT,,0.00,WeatherDisplay:10.37,2013-05-14 20:15:00,
2013-05-14 13:18:00,77.5,48.4,29.98,SSE,147,4.6,4.6,36,0.00,SCT,,0.00,WeatherDisplay:10.37,2013-05-14 20:18:00,
2013-05-14 13:19:00,77.7,49.3,29.99,ESE,114,4.6,4.6,37,0.00,SCT,,0.00,WeatherDisplay:10.37,2013-05-14 20:19:00,
2013-05-14 13:20:00,77.8,48.7,29.98,ESE,123,4.6,4.6,36,0.00,SCT,,0.00,WeatherDisplay:10.37,2013-05-14 20:20:00,
2013-05-14 13:23:00,78.3,48.4,29.99,ESE,123,9.2,9.2,35,0.00,SCT,,0.00,WeatherDisplay:10.37,2013-05-14 20:23:00,
2013-05-14 13:25:00,78.2,48.3,29.99,ESE,113,9.2,9.2,35,0.00,SCT,,0.00,WeatherDisplay:10.37,2013-05-14 20:25:00,
2013-05-14 13:27:00,78.1,49.0,29.99,SSW,201,4.0,4.0,36,0.00,SCT,,0.00,WeatherDisplay:10.37,2013-05-14 20:27:00,
2013-05-14 13:29:00,78.2,49.1,29.99,SSE,168,3.5,3.5,36,0.00,SCT,,0.00,WeatherDisplay:10.37,2013-05-14 20:29:00,
2013-05-14 13:31:00,78.2,49.1,29.98,East,100,13.8,13.8,36,0.00,SCT,,0.00,WeatherDisplay:10.37,2013-05-14 20:31:00,
2013-05-14 13:32:00,78.1,48.2,29.99,ENE,57,6.9,6.9,35,0.00,SCT,,0.00,WeatherDisplay:10.37,2013-05-14 20:32:00,
2013-05-14 13:33:00,78.0,48.9,29.98,SE,127,4.6,4.6,36,0.00,SCT,,0.00,WeatherDisplay:10.37,2013-05-14 20:33:00,
2013-05-14 13:34:00,78.1,49.0,29.98,ESE,106,3.5,3.5,36,0.00,SCT,,0.00,WeatherDisplay:10.37,2013-05-14 20:34:00,
2013-05-14 13:36:00,78.1,49.0,29.98,SE,135,3.5,3.5,36,0.00,SCT,,0.00,WeatherDisplay:10.37,2013-05-14 20:36:00,
2013-05-14 13:37:00,78.1,49.0,29.99,SE,131,8.0,8.0,36,0.00,SCT,,0.00,WeatherDisplay:10.37,2013-05-14 20:37:00,
2013-05-14 13:38:00,78.2,49.1,29.99,SE,138,8.1,8.1,36,0.00,SCT,,0.00,WeatherDisplay:10.37,2013-05-14 20:38:00,
2013-05-14 13:39:00,78.2,48.3,29.98,ESE,118,8.1,8.1,35,0.00,SCT,,0.00,WeatherDisplay:10.37,2013-05-14 20:39:00,
2013-05-14 13:40:00,78.2,48.3,29.98,SW,215,4.6,4.6,35,0.00,SCT,,0.00,WeatherDisplay:10.37,2013-05-14 20:40:00,
2013-05-14 13:41:00,78.3,48.4,29.98,NNE,33,4.6,4.6,35,0.00,SCT,,0.00,WeatherDisplay:10.37,2013-05-14 20:41:00,
2013-05-14 13:43:00,78.4,48.5,29.98,South,173,4.6,4.6,35,0.00,SCT,,0.00,WeatherDisplay:10.37,2013-05-14 20:43:00,
2013-05-14 13:44:00,78.4,48.5,29.98,SE,139,6.9,6.9,35,0.00,SCT,,0.00,WeatherDisplay:10.37,2013-05-14 20:44:00,
2013-05-14 13:46:00,78.4,48.5,29.98,SW,214,8.1,8.1,35,0.00,SCT,,0.00,WeatherDisplay:10.37,2013-05-14 20:46:00,
2013-05-14 13:48:00,78.5,48.6,29.98,ESE,117,10.4,10.4,35,0.00,SCT,,0.00,WeatherDisplay:10.37,2013-05-14 20:48:00,
2013-05-14 13:49:00,78.5,48.6,29.98,ENE,63,9.2,9.2,35,0.00,SCT,,0.00,WeatherDisplay:10.37,2013-05-14 20:49:00,
2013-05-14 13:51:00,78.4,49.2,29.98,South,186,7.0,7.0,36,0.00,SCT,,0.00,WeatherDisplay:10.37,2013-05-14 20:51:00,
2013-05-14 13:53:00,78.5,49.3,29.98,SE,144,6.9,6.9,36,0.00,SCT,,0.00,WeatherDisplay:10.37,2013-05-14 20:53:00,
2013-05-14 13:54:00,78.6,48.7,29.98,SE,137,4.6,4.6,35,0.00,SCT,,0.00,WeatherDisplay:10.37,2013-05-14 20:54:00,
2013-05-14 13:56:00,78.5,48.6,29.98,SE,142,5.8,5.8,35,0.00,SCT,,0.00,WeatherDisplay:10.37,2013-05-14 20:56:00,
2013-05-14 13:57:00,78.5,48.6,29.98,South,184,5.8,5.8,35,0.00,SCT,,0.00,WeatherDisplay:10.37,2013-05-14 20:57:00,
2013-05-14 13:58:00,78.5,48.6,29.98,ESE,111,11.5,11.5,35,0.00,SCT,,0.00,WeatherDisplay:10.37,2013-05-14 20:58:00,
2013-05-14 14:00:00,78.5,48.6,29.98,ESE,118,6.0,6.0,35,0.00,SCT,,0.00,WeatherDisplay:10.37,2013-05-14 21:00:00,
2013-05-14 14:01:00,78.6,49.4,29.98,South,172,10.4,10.4,36,0.00,SCT,,0.00,WeatherDisplay:10.37,2013-05-14 21:01:00,
2013-05-14 14:02:00,78.7,48.7,29.98,SE,138,10.4,10.4,35,0.00,SCT,,0.00,WeatherDisplay:10.37,2013-05-14 21:02:00,
2013-05-14 14:04:00,78.7,48.0,29.98,SSW,207,6.9,6.9,34,0.00,SCT,,0.00,WeatherDisplay:10.37,2013-05-14 21:04:00,
2013-05-14 14:05:00,78.7,48.0,29.98,SSW,207,6.9,6.9,34,0.00,SCT,,0.00,WeatherDisplay:10.37,2013-05-14 21:05:00,
2013-05-14 14:06:00,78.7,48.7,29.98,SW,224,8.1,8.1,35,0.00,SCT,,0.00,WeatherDisplay:10.37,2013-05-14 21:06:00,
2013-05-14 14:08:00,78.6,48.7,29.98,East,93,4.6,4.6,35,0.00,SCT,,0.00,WeatherDisplay:10.37,2013-05-14 21:08:00,
2013-05-14 14:10:00,78.5,49.3,29.98,SSE,152,4.6,4.6,36,0.00,SCT,,0.00,WeatherDisplay:10.37,2013-05-14 21:10:00,
2013-05-14 14:11:00,78.6,48.7,29.98,ENE,72,9.0,9.0,35,0.00,SCT,,0.00,WeatherDisplay:10.37,2013-05-14 21:11:00,
2013-05-14 14:12:00,78.6,48.7,29.98,ESE,110,9.2,9.2,35,0.00,SCT,,0.00,WeatherDisplay:10.37,2013-05-14 21:12:00,
2013-05-14 14:14:00,78.5,48.6,29.98,ESE,117,9.2,9.2,35,0.00,SCT,,0.00,WeatherDisplay:10.37,2013-05-14 21:14:00,
2013-05-14 14:15:00,78.5,48.6,29.98,SE,133,3.0,3.0,35,0.00,SCT,,0.00,WeatherDisplay:10.37,2013-05-14 21:15:00,
2013-05-14 14:17:00,78.6,48.7,29.98,East,80,5.8,5.8,35,0.00,SCT,,0.00,WeatherDisplay:10.37,2013-05-14 21:17:00,
2013-05-14 14:19:00,78.7,48.7,29.98,NE,42,5.8,5.8,35,0.00,SCT,,0.00,WeatherDisplay:10.37,2013-05-14 21:19:00,
2013-05-14 14:20:00,78.7,48.0,29.98,South,188,5.8,5.8,34,0.00,SCT,,0.00,WeatherDisplay:10.37,2013-05-14 21:20:00,
2013-05-14 14:22:00,78.6,47.9,29.97,SSE,152,8.1,8.1,34,0.00,SCT,,0.00,WeatherDisplay:10.37,2013-05-14 21:22:00,
2013-05-14 14:24:00,78.5,47.8,29.98,SE,133,6.0,6.0,34,0.00,SCT,,0.00,WeatherDisplay:10.37,2013-05-14 21:24:00,
2013-05-14 14:25:00,78.3,47.6,29.97,South,177,8.1,8.1,34,0.00,SCT,,0.00,WeatherDisplay:10.37,2013-05-14 21:25:00,
2013-05-14 14:26:00,78.3,47.6,29.97,East,82,9.0,9.0,34,0.00,SCT,,0.00,WeatherDisplay:10.37,2013-05-14 21:26:00,
2013-05-14 14:27:00,78.3,48.4,29.98,South,191,8.1,8.1,35,0.00,SCT,,0.00,WeatherDisplay:10.37,2013-05-14 21:27:00,
2013-05-14 14:29:00,78.2,47.5,29.98,ESE,109,3.5,3.5,34,0.00,SCT,,0.00,WeatherDisplay:10.37,2013-05-14 21:29:00,
2013-05-14 14:31:00,78.3,48.4,29.98,ENE,78,9.2,9.2,35,0.00,SCT,,0.00,WeatherDisplay:10.37,2013-05-14 21:31:00,
2013-05-14 14:33:00,78.3,47.6,29.98,SE,135,6.9,6.9,34,0.00,SCT,,0.00,WeatherDisplay:10.37,2013-05-14 21:33:00,
2013-05-14 14:34:00,78.4,48.5,29.98,ESE,109,7.0,7.0,35,0.00,SCT,,0.00,WeatherDisplay:10.37,2013-05-14 21:34:00,
2013-05-14 14:36:00,78.5,47.8,29.97,South,183,3.5,3.5,34,0.00,SCT,,0.00,WeatherDisplay:10.37,2013-05-14 21:36:00,
2013-05-14 14:37:00,78.5,47.0,29.97,SSW,208,4.6,4.6,33,0.00,SCT,,0.00,WeatherDisplay:10.37,2013-05-14 21:37:00,
2013-05-14 14:38:00,78.4,46.9,29.97,SE,142,8.1,8.1,33,0.00,SCT,,0.00,WeatherDisplay:10.37,2013-05-14 21:38:00,
2013-05-14 14:39:00,78.4,47.7,29.98,SE,126,8.1,8.1,34,0.00,SCT,,0.00,WeatherDisplay:10.37,2013-05-14 21:39:00,
2013-05-14 14:40:00,78.2,46.7,29.98,SE,132,7.0,7.0,33,0.00,SCT,,0.00,WeatherDisplay:10.37,2013-05-14 21:40:00,
2013-05-14 14:42:00,78.1,47.4,29.98,SE,143,10.4,10.4,34,0.00,SCT,,0.00,WeatherDisplay:10.37,2013-05-14 21:42:00,
2013-05-14 14:44:00,78.3,48.4,29.98,South,176,10.4,10.4,35,0.00,SCT,,0.00,WeatherDisplay:10.37,2013-05-14 21:44:00,
2013-05-14 14:45:00,78.3,47.6,29.98,SE,132,10.4,10.4,34,0.00,SCT,,0.00,WeatherDisplay:10.37,2013-05-14 21:45:00,
2013-05-14 14:47:00,78.3,46.8,29.98,ESE,115,5.0,5.0,33,0.00,SCT,,0.00,WeatherDisplay:10.37,2013-05-14 21:47:00,
2013-05-14 14:49:00,78.2,46.7,29.98,ESE,123,4.6,4.6,33,0.00,SCT,,0.00,WeatherDisplay:10.37,2013-05-14 21:49:00,
2013-05-14 14:50:00,78.4,47.7,29.98,SSW,209,3.5,3.5,34,0.00,SCT,,0.00,WeatherDisplay:10.37,2013-05-14 21:50:00,
2013-05-14 14:51:00,78.4,47.7,29.98,SSW,211,3.5,3.5,34,0.00,SCT,,0.00,WeatherDisplay:10.37,2013-05-14 21:51:00,
2013-05-14 14:53:00,78.5,47.0,29.98,SW,226,3.5,3.5,33,0.00,SCT,,0.00,WeatherDisplay:10.37,2013-05-14 21:53:00,
2013-05-14 14:55:00,78.6,47.1,29.98,SSE,154,2.0,8.0,33,0.00,SCT,,0.00,WeatherDisplay:10.37,2013-05-14 21:55:00,
2013-05-14 14:56:00,78.6,47.1,29.97,SSW,206,5.8,5.8,33,0.00,SCT,,0.00,WeatherDisplay:10.37,2013-05-14 21:56:00,
2013-05-14 14:58:00,78.3,46.8,29.98,SSW,197,6.9,6.9,33,0.00,SCT,,0.00,WeatherDisplay:10.37,2013-05-14 21:58:00,
2013-05-14 15:01:00,78.0,47.4,29.97,SW,218,4.6,4.6,34,0.00,SCT,,0.00,WeatherDisplay:10.37,2013-05-14 22:01:00,
2013-05-14 15:02:00,77.9,47.3,29.97,South,179,4.6,4.6,34,0.00,SCT,,0.00,WeatherDisplay:10.37,2013-05-14 22:02:00,
2013-05-14 15:04:00,78.0,47.4,29.98,SSE,152,6.9,6.9,34,0.00,SCT,,0.00,WeatherDisplay:10.37,2013-05-14 22:04:00,
2013-05-14 15:06:00,77.6,47.0,29.98,South,182,8.1,8.1,34,0.00,SCT,,0.00,WeatherDisplay:10.37,2013-05-14 22:06:00,
2013-05-14 15:07:00,77.5,46.1,29.98,South,180,8.1,8.1,33,0.00,SCT,,0.00,WeatherDisplay:10.37,2013-05-14 22:07:00,
2013-05-14 15:11:00,77.0,47.2,29.98,ESE,121,6.9,6.9,35,0.00,SCT,,0.00,WeatherDisplay:10.37,2013-05-14 22:11:00,
2013-05-14 15:12:00,77.0,47.2,29.98,SSW,200,6.9,6.9,35,0.00,SCT,,0.00,WeatherDisplay:10.37,2013-05-14 22:12:00,
2013-05-14 15:13:00,77.1,47.3,29.98,SSW,212,5.8,5.8,35,0.00,SCT,,0.00,WeatherDisplay:10.37,2013-05-14 22:13:00,
2013-05-14 15:16:00,77.2,46.7,29.98,SSW,213,3.5,3.5,34,0.00,SCT,,0.00,WeatherDisplay:10.37,2013-05-14 22:16:00,
2013-05-14 15:17:00,77.1,46.6,29.97,South,186,4.6,4.6,34,0.00,SCT,,0.00,WeatherDisplay:10.37,2013-05-14 22:17:00,
2013-05-14 15:18:00,76.8,47.1,29.98,SSE,150,3.5,3.5,35,0.00,SCT,,0.00,WeatherDisplay:10.37,2013-05-14 22:18:00,
2013-05-14 15:20:00,76.6,46.9,29.98,SSE,147,3.5,3.5,35,0.00,SCT,,0.00,WeatherDisplay:10.37,2013-05-14 22:20:00,
2013-05-14 15:22:00,76.6,46.9,29.97,East,82,4.6,4.6,35,0.00,SCT,,0.00,WeatherDisplay:10.37,2013-05-14 22:22:00,
2013-05-14 15:23:00,76.6,46.9,29.97,East,81,4.6,4.6,35,0.00,SCT,,0.00,WeatherDisplay:10.37,2013-05-14 22:23:00,
2013-05-14 15:26:00,76.5,46.8,29.98,SSW,200,3.5,3.8,35,0.00,SCT,,0.00,WeatherDisplay:10.37,2013-05-14 22:26:00,
2013-05-14 15:27:00,76.5,47.6,29.97,SSW,202,6.9,6.9,36,0.00,SCT,,0.00,WeatherDisplay:10.37,2013-05-14 22:27:00,
2013-05-14 15:28:00,76.5,46.8,29.97,SSE,164,3.5,3.5,35,0.00,SCT,,0.00,WeatherDisplay:10.37,2013-05-14 22:28:00,
2013-05-14 15:30:00,76.3,47.4,29.98,ESE,112,5.8,5.8,36,0.00,SCT,,0.00,WeatherDisplay:10.37,2013-05-14 22:30:00,
2013-05-14 15:31:00,76.4,47.5,29.98,ESE,119,5.8,5.8,36,0.00,SCT,,0.00,WeatherDisplay:10.37,2013-05-14 22:31:00,
2013-05-14 15:33:00,76.9,47.9,29.97,SSE,158,3.5,3.5,36,0.00,SCT,,0.00,WeatherDisplay:10.37,2013-05-14 22:33:00,
2013-05-14 15:34:00,76.9,47.2,29.97,ESE,121,3.5,3.5,35,0.00,SCT,,0.00,WeatherDisplay:10.37,2013-05-14 22:34:00,
2013-05-14 15:35:00,77.1,47.3,29.97,SSE,152,2.3,2.3,35,0.00,SCT,,0.00,WeatherDisplay:10.37,2013-05-14 22:35:00,
2013-05-14 15:36:00,77.2,47.4,29.98,WNW,297,2.3,2.3,35,0.00,SCT,,0.00,WeatherDisplay:10.37,2013-05-14 22:36:00,
2013-05-14 15:39:00,76.8,47.1,29.97,SSE,166,2.3,2.3,35,0.00,SCT,,0.00,WeatherDisplay:10.37,2013-05-14 22:39:00,
2013-05-14 15:41:00,76.8,46.3,29.97,SSE,165,4.6,4.6,34,0.00,SCT,,0.00,WeatherDisplay:10.37,2013-05-14 22:41:00,
2013-05-14 15:42:00,76.7,46.2,29.97,SSE,154,4.6,4.6,34,0.00,SCT,,0.00,WeatherDisplay:10.37,2013-05-14 22:42:00,
2013-05-14 15:44:00,76.6,46.9,29.97,WSW,253,6.9,6.9,35,0.00,SCT,,0.00,WeatherDisplay:10.37,2013-05-14 22:44:00,
2013-05-14 15:46:00,76.5,46.8,29.98,SW,217,2.3,2.3,35,0.00,SCT,,0.00,WeatherDisplay:10.37,2013-05-14 22:46:00,
2013-05-14 15:47:00,76.6,46.9,29.98,ESE,108,6.9,6.9,35,0.00,SCT,,0.00,WeatherDisplay:10.37,2013-05-14 22:47:00,
2013-05-14 15:50:00,76.5,46.8,29.98,South,184,4.6,4.6,35,0.00,SCT,,0.00,WeatherDisplay:10.37,2013-05-14 22:50:00,
2013-05-14 15:52:00,76.2,46.5,29.98,SE,128,3.5,3.5,35,0.00,SCT,,0.00,WeatherDisplay:10.37,2013-05-14 22:52:00,
2013-05-14 15:53:00,76.2,46.5,29.98,SE,127,3.5,3.5,35,0.00,SCT,,0.00,WeatherDisplay:10.37,2013-05-14 22:53:00,
2013-05-14 15:55:00,76.2,46.5,29.97,South,191,4.6,4.6,35,0.00,SCT,,0.00,WeatherDisplay:10.37,2013-05-14 22:55:00,
2013-05-14 15:57:00,76.1,46.5,29.98,West,261,3.5,3.5,35,0.00,SCT,,0.00,WeatherDisplay:10.37,2013-05-14 22:57:00,
2013-05-14 15:58:00,76.0,46.4,29.98,SSW,212,3.5,3.5,35,0.00,SCT,,0.00,WeatherDisplay:10.37,2013-05-14 22:58:00,
2013-05-14 15:59:00,75.9,46.3,29.98,SE,139,5.8,5.8,35,0.00,SCT,,0.00,WeatherDisplay:10.37,2013-05-14 22:59:00,
2013-05-14 16:00:00,75.9,46.2,29.98,South,170,2.0,6.0,35,0.00,SCT,,0.00,WeatherDisplay:10.37,2013-05-14 23:00:00,
2013-05-14 16:01:00,75.6,46.8,29.98,South,183,5.0,5.0,36,0.00,SCT,,0.00,WeatherDisplay:10.37,2013-05-14 23:01:00,
2013-05-14 16:03:00,75.6,46.8,29.98,SSE,163,4.6,4.6,36,0.00,SCT,,0.00,WeatherDisplay:10.37,2013-05-14 23:03:00,
2013-05-14 16:05:00,75.6,46.8,29.98,SE,145,3.5,3.5,36,0.00,SCT,,0.00,WeatherDisplay:10.37,2013-05-14 23:05:00,
2013-05-14 16:07:00,75.8,46.9,29.98,SE,134,8.1,8.1,36,0.00,SCT,,0.00,WeatherDisplay:10.37,2013-05-14 23:07:00,
2013-05-14 16:08:00,75.8,46.9,29.98,SE,125,5.8,5.8,36,0.00,SCT,,0.00,WeatherDisplay:10.37,2013-05-14 23:08:00,
2013-05-14 16:09:00,75.9,47.0,29.98,South,191,4.6,4.6,36,0.00,SCT,,0.00,WeatherDisplay:10.37,2013-05-14 23:09:00,
2013-05-14 16:10:00,75.9,47.0,29.98,South,190,6.9,6.9,36,0.00,SCT,,0.00,WeatherDisplay:10.37,2013-05-14 23:10:00,
2013-05-14 16:11:00,76.0,47.1,29.98,SE,143,9.2,9.2,36,0.00,SCT,,0.00,WeatherDisplay:10.37,2013-05-14 23:11:00,
2013-05-14 16:13:00,76.0,47.1,29.98,ENE,58,3.5,3.5,36,0.00,SCT,,0.00,WeatherDisplay:10.37,2013-05-14 23:13:00,
2013-05-14 16:14:00,76.1,47.2,29.98,ENE,74,3.5,3.5,36,0.00,SCT,,0.00,WeatherDisplay:10.37,2013-05-14 23:14:00,
2013-05-14 16:15:00,76.2,47.3,29.98,SSE,156,6.0,6.0,36,0.00,SCT,,0.00,WeatherDisplay:10.37,2013-05-14 23:15:00,
2013-05-14 16:16:00,76.2,47.3,29.98,SE,124,3.5,3.5,36,0.00,SCT,,0.00,WeatherDisplay:10.37,2013-05-14 23:16:00,
2013-05-14 16:17:00,76.1,47.2,29.98,East,91,7.0,7.0,36,0.00,SCT,,0.00,WeatherDisplay:10.37,2013-05-14 23:17:00,
2013-05-14 16:18:00,76.0,47.8,29.98,ESE,114,7.0,7.0,37,0.00,SCT,,0.00,WeatherDisplay:10.37,2013-05-14 23:18:00,
2013-05-14 16:19:00,76.0,47.8,29.98,ESE,120,6.9,6.9,37,0.00,SCT,,0.00,WeatherDisplay:10.37,2013-05-14 23:19:00,
2013-05-14 16:20:00,76.0,47.8,29.98,ESE,106,6.9,6.9,37,0.00,SCT,,0.00,WeatherDisplay:10.37,2013-05-14 23:20:00,
2013-05-14 16:21:00,75.9,47.8,29.98,South,180,6.9,6.9,37,0.00,SCT,,0.00,WeatherDisplay:10.37,2013-05-14 23:21:00,
2013-05-14 16:23:00,75.9,47.8,29.98,SE,134,8.1,8.1,37,0.00,SCT,,0.00,WeatherDisplay:10.37,2013-05-14 23:23:00,
2013-05-14 16:24:00,76.0,47.8,29.98,ENE,67,11.5,11.5,37,0.00,SCT,,0.00,WeatherDisplay:10.37,2013-05-14 23:24:00,
2013-05-14 16:25:00,76.0,48.6,29.98,SW,225,3.5,3.5,38,0.00,SCT,,0.00,WeatherDisplay:10.37,2013-05-14 23:25:00,
2013-05-14 16:26:00,76.0,47.8,29.98,SSW,195,9.2,9.2,37,0.00,SCT,,0.00,WeatherDisplay:10.37,2013-05-14 23:26:00,
2013-05-14 16:27:00,76.0,47.8,29.98,WSW,248,9.2,9.2,37,0.00,SCT,,0.00,WeatherDisplay:10.37,2013-05-14 23:27:00,
2013-05-14 16:28:00,75.9,47.8,29.98,South,174,3.0,3.0,37,0.00,SCT,,0.00,WeatherDisplay:10.37,2013-05-14 23:28:00,
2013-05-14 16:29:00,75.9,47.8,29.98,ESE,113,8.1,8.1,37,0.00,SCT,,0.00,WeatherDisplay:10.37,2013-05-14 23:29:00,
2013-05-14 16:31:00,75.9,48.5,29.98,South,188,2.3,2.3,38,0.00,SCT,,0.00,WeatherDisplay:10.37,2013-05-14 23:31:00,
2013-05-14 16:32:00,75.8,48.4,29.98,SE,129,3.5,3.5,38,0.00,SCT,,0.00,WeatherDisplay:10.37,2013-05-14 23:32:00,
2013-05-14 16:34:00,75.9,48.5,29.98,East,83,5.0,5.0,38,0.00,SCT,,0.00,WeatherDisplay:10.37,2013-05-14 23:34:00,
2013-05-14 16:36:00,76.0,48.6,29.98,SSW,208,3.5,3.5,38,0.00,SCT,,0.00,WeatherDisplay:10.37,2013-05-14 23:36:00,
2013-05-14 16:37:00,76.1,48.6,29.98,ESE,117,2.3,2.3,38,0.00,SCT,,0.00,WeatherDisplay:10.37,2013-05-14 23:37:00,
2013-05-14 16:39:00,76.2,48.0,29.98,ESE,122,4.0,4.0,37,0.00,SCT,,0.00,WeatherDisplay:10.37,2013-05-14 23:39:00,
2013-05-14 16:41:00,76.1,47.9,29.98,ESE,123,10.4,10.4,37,0.00,SCT,,0.00,WeatherDisplay:10.37,2013-05-14 23:41:00,
2013-05-14 16:43:00,76.0,47.8,29.98,ENE,67,8.1,8.1,37,0.00,SCT,,0.00,WeatherDisplay:10.37,2013-05-14 23:43:00,
2013-05-14 16:44:00,75.8,48.4,29.98,South,182,3.5,3.5,38,0.00,SCT,,0.00,WeatherDisplay:10.37,2013-05-14 23:44:00,
2013-05-14 16:45:00,75.8,48.4,29.98,SE,139,1.0,10.0,38,0.00,SCT,,0.00,WeatherDisplay:10.37,2013-05-14 23:45:00,
2013-05-14 16:47:00,75.9,47.8,29.98,ENE,63,3.5,3.5,37,0.00,SCT,,0.00,WeatherDisplay:10.37,2013-05-14 23:47:00,
2013-05-14 16:48:00,75.9,47.8,29.97,East,93,3.5,3.5,37,0.00,SCT,,0.00,WeatherDisplay:10.37,2013-05-14 23:48:00,
2013-05-14 16:50:00,75.7,48.3,29.97,SSE,155,4.6,4.6,38,0.00,SCT,,0.00,WeatherDisplay:10.37,2013-05-14 23:50:00,
2013-05-14 16:52:00,75.6,47.5,29.98,East,98,5.8,5.8,37,0.00,SCT,,0.00,WeatherDisplay:10.37,2013-05-14 23:52:00,
2013-05-14 16:53:00,75.5,48.1,29.97,ESE,118,3.5,3.5,38,0.00,SCT,,0.00,WeatherDisplay:10.37,2013-05-14 23:53:00,
2013-05-14 16:54:00,75.5,48.1,29.97,SE,128,7.0,7.0,38,0.00,SCT,,0.00,WeatherDisplay:10.37,2013-05-14 23:54:00,
2013-05-14 16:55:00,75.4,47.3,29.98,SSE,152,6.9,6.9,37,0.00,SCT,,0.00,WeatherDisplay:10.37,2013-05-14 23:55:00,
2013-05-14 16:57:00,75.3,47.2,29.97,South,179,10.4,10.4,37,0.00,SCT,,0.00,WeatherDisplay:10.37,2013-05-14 23:57:00,
2013-05-14 16:58:00,75.0,47.7,29.97,SE,143,2.3,2.3,38,0.00,SCT,,0.00,WeatherDisplay:10.37,2013-05-14 23:58:00,
2013-05-14 16:59:00,74.9,47.6,29.97,SW,236,4.6,4.6,38,0.00,SCT,,0.00,WeatherDisplay:10.37,2013-05-14 23:59:00,
2013-05-14 17:02:00,74.8,47.5,29.97,South,176,2.3,2.3,38,0.00,SCT,,0.00,WeatherDisplay:10.37,2013-05-15 00:02:00,
2013-05-14 17:04:00,74.7,47.4,29.97,SSW,208,4.6,4.6,38,0.00,SCT,,0.00,WeatherDisplay:10.37,2013-05-15 00:04:00,
2013-05-14 17:05:00,74.7,47.4,29.97,South,170,1.0,6.0,38,0.00,SCT,,0.00,WeatherDisplay:10.37,2013-05-15 00:05:00,
2013-05-14 17:07:00,74.6,48.0,29.97,South,181,5.8,5.8,39,0.00,SCT,,0.00,WeatherDisplay:10.37,2013-05-15 00:07:00,
2013-05-14 17:09:00,74.6,47.3,29.97,SW,216,9.2,9.2,38,0.00,SCT,,0.00,WeatherDisplay:10.37,2013-05-15 00:09:00,
2013-05-14 17:10:00,74.6,47.3,29.97,South,190,2.0,9.0,38,0.00,SCT,,0.00,WeatherDisplay:10.37,2013-05-15 00:10:00,
2013-05-14 17:11:00,74.6,48.0,29.97,ESE,113,3.5,3.5,39,0.00,SCT,,0.00,WeatherDisplay:10.37,2013-05-15 00:11:00,
2013-05-14 17:13:00,74.5,47.9,29.97,SE,138,9.2,9.2,39,0.00,SCT,,0.00,WeatherDisplay:10.37,2013-05-15 00:13:00,
2013-05-14 17:14:00,74.5,47.9,29.97,South,179,5.8,5.8,39,0.00,SCT,,0.00,WeatherDisplay:10.37,2013-05-15 00:14:00,
2013-05-14 17:15:00,74.3,47.7,29.97,SSE,164,5.8,5.8,39,0.00,SCT,,0.00,WeatherDisplay:10.37,2013-05-15 00:15:00,
2013-05-14 17:16:00,74.3,47.7,29.97,ESE,103,3.5,3.5,39,0.00,SCT,,0.00,WeatherDisplay:10.37,2013-05-15 00:16:00,
2013-05-14 17:17:00,74.1,48.2,29.97,SE,139,4.0,4.0,40,0.00,SCT,,0.00,WeatherDisplay:10.37,2013-05-15 00:17:00,
2013-05-14 17:19:00,74.1,48.2,29.97,ESE,106,3.5,3.5,40,0.00,SCT,,0.00,WeatherDisplay:10.37,2013-05-15 00:19:00,
2013-05-14 17:20:00,74.0,48.1,29.97,SE,138,1.0,5.0,40,0.00,SCT,,0.00,WeatherDisplay:10.37,2013-05-15 00:20:00,
2013-05-14 17:21:00,74.1,48.2,29.98,SE,133,8.0,8.0,40,0.00,SCT,,0.00,WeatherDisplay:10.37,2013-05-15 00:21:00,
2013-05-14 17:23:00,74.1,48.2,29.97,North,5,8.1,8.1,40,0.00,SCT,,0.00,WeatherDisplay:10.37,2013-05-15 00:23:00,
2013-05-14 17:25:00,74.1,48.2,29.97,SSE,150,2.0,8.0,40,0.00,SCT,,0.00,WeatherDisplay:10.37,2013-05-15 00:25:00,
2013-05-14 17:26:00,74.0,48.1,29.97,South,170,4.6,4.6,40,0.00,SCT,,0.00,WeatherDisplay:10.37,2013-05-15 00:26:00,
2013-05-14 17:28:00,73.9,48.1,29.98,South,184,4.6,4.6,40,0.00,SCT,,0.00,WeatherDisplay:10.37,2013-05-15 00:28:00,
2013-05-14 17:30:00,73.8,48.0,29.97,SW,220,10.4,10.4,40,0.00,SCT,,0.00,WeatherDisplay:10.37,2013-05-15 00:30:00,
2013-05-14 17:31:00,73.8,48.0,29.97,SE,141,4.6,4.6,40,0.00,SCT,,0.00,WeatherDisplay:10.37,2013-05-15 00:31:00,
2013-05-14 17:32:00,73.9,48.1,29.98,SSE,160,5.8,5.8,40,0.00,SCT,,0.00,WeatherDisplay:10.37,2013-05-15 00:32:00,
2013-05-14 17:33:00,73.7,47.9,29.97,ESE,114,6.9,6.9,40,0.00,SCT,,0.00,WeatherDisplay:10.37,2013-05-15 00:33:00,
2013-05-14 17:35:00,73.6,47.8,29.97,SE,127,4.6,4.6,40,0.00,SCT,,0.00,WeatherDisplay:10.37,2013-05-15 00:35:00,
2013-05-14 17:37:00,73.6,47.8,29.98,South,171,3.5,3.5,40,0.00,SCT,,0.00,WeatherDisplay:10.37,2013-05-15 00:37:00,
2013-05-14 17:38:00,73.5,47.7,29.98,SE,146,11.5,11.5,40,0.00,SCT,,0.00,WeatherDisplay:10.37,2013-05-15 00:38:00,
2013-05-14 17:39:00,73.5,47.0,29.98,ESE,117,10.4,10.4,39,0.00,SCT,,0.00,WeatherDisplay:10.37,2013-05-15 00:39:00,
2013-05-14 17:40:00,73.5,47.0,29.98,SE,144,2.0,12.0,39,0.00,SCT,,0.00,WeatherDisplay:10.37,2013-05-15 00:40:00,
2013-05-14 17:41:00,73.4,47.6,29.98,ESE,117,8.1,8.1,40,0.00,SCT,,0.00,WeatherDisplay:10.37,2013-05-15 00:41:00,
2013-05-14 17:42:00,73.4,46.9,29.98,South,172,6.9,6.9,39,0.00,SCT,,0.00,WeatherDisplay:10.37,2013-05-15 00:42:00,
2013-05-14 17:43:00,73.3,47.5,29.98,South,174,4.6,4.6,40,0.00,SCT,,0.00,WeatherDisplay:10.37,2013-05-15 00:43:00,
2013-05-14 17:45:00,73.3,47.5,29.98,East,85,4.6,4.6,40,0.00,SCT,,0.00,WeatherDisplay:10.37,2013-05-15 00:45:00,
2013-05-14 17:46:00,73.2,47.4,29.98,SE,133,13.0,13.0,40,0.00,SCT,,0.00,WeatherDisplay:10.37,2013-05-15 00:46:00,
2013-05-14 17:47:00,73.1,47.3,29.98,SSW,213,12.7,12.7,40,0.00,SCT,,0.00,WeatherDisplay:10.37,2013-05-15 00:47:00,
2013-05-14 17:49:00,72.9,47.2,29.98,NE,45,3.5,3.5,40,0.00,SCT,,0.00,WeatherDisplay:10.37,2013-05-15 00:49:00,
2013-05-14 17:51:00,72.9,47.2,29.98,SE,137,3.5,3.5,40,0.00,SCT,,0.00,WeatherDisplay:10.37,2013-05-15 00:51:00,
2013-05-14 17:52:00,72.8,47.1,29.97,SW,228,3.5,3.5,40,0.00,SCT,,0.00,WeatherDisplay:10.37,2013-05-15 00:52:00,
2013-05-14 17:53:00,72.8,47.1,29.97,SE,142,3.5,3.5,40,0.00,SCT,,0.00,WeatherDisplay:10.37,2013-05-15 00:53:00,
2013-05-14 17:54:00,72.8,47.1,29.97,South,189,3.5,3.5,40,0.00,SCT,,0.00,WeatherDisplay:10.37,2013-05-15 00:54:00,
2013-05-14 17:56:00,72.6,46.9,29.97,SSE,161,2.3,2.3,40,0.00,SCT,,0.00,WeatherDisplay:10.37,2013-05-15 00:56:00,
2013-05-14 17:57:00,72.7,47.0,29.98,South,178,2.3,2.3,40,0.00,SCT,,0.00,WeatherDisplay:10.37,2013-05-15 00:57:00,
2013-05-14 17:58:00,72.7,47.0,29.98,South,173,6.0,6.0,40,0.00,SCT,,0.00,WeatherDisplay:10.37,2013-05-15 00:58:00,
2013-05-14 17:59:00,72.7,47.0,29.97,SSW,196,5.8,5.8,40,0.00,SCT,,0.00,WeatherDisplay:10.37,2013-05-15 00:59:00,
2013-05-14 18:01:00,72.6,46.9,29.98,SE,126,4.6,4.6,40,0.00,SCT,,0.00,WeatherDisplay:10.37,2013-05-15 01:01:00,
2013-05-14 18:02:00,72.6,46.9,29.98,South,181,3.5,3.5,40,0.00,SCT,,0.00,WeatherDisplay:10.37,2013-05-15 01:02:00,
2013-05-14 18:04:00,72.3,47.3,29.98,SSW,210,3.5,3.5,41,0.00,SCT,,0.00,WeatherDisplay:10.37,2013-05-15 01:04:00,
2013-05-14 18:05:00,72.2,46.5,29.97,South,190,10.4,10.4,40,0.00,SCT,,0.00,WeatherDisplay:10.37,2013-05-15 01:05:00,
2013-05-14 18:06:00,72.1,46.4,29.97,SE,132,3.5,3.5,40,0.00,SCT,,0.00,WeatherDisplay:10.37,2013-05-15 01:06:00,
2013-05-14 18:07:00,72.0,46.3,29.98,SSE,159,5.8,5.8,40,0.00,SCT,,0.00,WeatherDisplay:10.37,2013-05-15 01:07:00,
2013-05-14 18:09:00,71.9,46.3,29.98,SSE,154,4.6,4.6,40,0.00,SCT,,0.00,WeatherDisplay:10.37,2013-05-15 01:09:00,
2013-05-14 18:10:00,71.7,46.1,29.98,SE,145,7.0,7.0,40,0.00,SCT,,0.00,WeatherDisplay:10.37,2013-05-15 01:10:00,
2013-05-14 18:14:00,71.6,46.6,29.97,ESE,119,3.5,3.5,41,0.00,SCT,,0.00,WeatherDisplay:10.37,2013-05-15 01:14:00,
2013-05-14 18:15:00,71.6,46.6,29.97,SE,125,8.0,8.0,41,0.00,SCT,,0.00,WeatherDisplay:10.37,2013-05-15 01:15:00,
2013-05-14 18:18:00,71.5,45.9,29.97,SSW,197,3.5,3.5,40,0.00,SCT,,0.00,WeatherDisplay:10.37,2013-05-15 01:18:00,
2013-05-14 18:19:00,71.4,46.5,29.98,SSW,199,2.3,2.3,41,0.00,SCT,,0.00,WeatherDisplay:10.37,2013-05-15 01:19:00,
2013-05-14 18:20:00,71.4,46.5,29.98,SSW,199,2.3,2.3,41,0.00,SCT,,0.00,WeatherDisplay:10.37,2013-05-15 01:20:00,
2013-05-14 18:21:00,71.2,46.3,29.98,South,189,4.6,4.6,41,0.00,SCT,,0.00,WeatherDisplay:10.37,2013-05-15 01:21:00,
2013-05-14 18:24:00,71.2,46.3,29.98,ESE,117,2.0,2.0,41,0.00,SCT,,0.00,WeatherDisplay:10.37,2013-05-15 01:24:00,
2013-05-14 18:25:00,71.1,46.2,29.97,SSE,151,4.6,4.6,41,0.00,SCT,,0.00,WeatherDisplay:10.37,2013-05-15 01:25:00,
2013-05-14 18:26:00,71.2,46.3,29.98,SSW,195,3.5,3.5,41,0.00,SCT,,0.00,WeatherDisplay:10.37,2013-05-15 01:26:00,
2013-05-14 18:27:00,71.2,46.3,29.97,SW,232,3.5,3.5,41,0.00,SCT,,0.00,WeatherDisplay:10.37,2013-05-15 01:27:00,
2013-05-14 18:30:00,71.2,45.6,29.98,SSW,195,5.8,5.8,40,0.00,SCT,,0.00,WeatherDisplay:10.37,2013-05-15 01:30:00,
2013-05-14 18:31:00,71.2,46.3,29.98,SE,141,5.8,5.8,41,0.00,SCT,,0.00,WeatherDisplay:10.37,2013-05-15 01:31:00,
2013-05-14 18:32:00,71.1,45.5,29.98,SE,126,2.3,2.3,40,0.00,SCT,,0.00,WeatherDisplay:10.37,2013-05-15 01:32:00,
2013-05-14 18:34:00,70.8,45.9,29.97,SE,144,1.2,1.2,41,0.00,SCT,,0.00,WeatherDisplay:10.37,2013-05-15 01:34:00,
2013-05-14 18:35:00,70.6,46.4,29.98,South,181,1.2,0.0,42,0.00,SCT,,0.00,WeatherDisplay:10.37,2013-05-15 01:35:00,
2013-05-14 18:36:00,70.6,46.4,29.98,South,181,1.2,0.0,42,0.00,SCT,,0.00,WeatherDisplay:10.37,2013-05-15 01:36:00,
2013-05-14 18:39:00,70.5,46.3,29.97,SE,132,0.0,0.5,42,0.00,SCT,,0.00,WeatherDisplay:10.37,2013-05-15 01:39:00,
2013-05-14 18:41:00,70.6,46.4,29.98,SSW,193,1.2,1.2,42,0.00,SCT,,0.00,WeatherDisplay:10.37,2013-05-15 01:41:00,
2013-05-14 18:43:00,70.6,46.4,29.98,SW,236,3.5,3.5,42,0.00,SCT,,0.00,WeatherDisplay:10.37,2013-05-15 01:43:00,
2013-05-14 18:44:00,70.5,45.7,29.98,SE,139,4.0,4.0,41,0.00,SCT,,0.00,WeatherDisplay:10.37,2013-05-15 01:44:00,
2013-05-14 18:45:00,70.5,46.3,29.98,SE,130,4.6,4.6,42,0.00,SCT,,0.00,WeatherDisplay:10.37,2013-05-15 01:45:00,
2013-05-14 18:46:00,70.4,46.2,29.98,SE,130,3.5,3.5,42,0.00,SCT,,0.00,WeatherDisplay:10.37,2013-05-15 01:46:00,
2013-05-14 18:48:00,70.5,46.3,29.98,SSW,206,1.2,1.2,42,0.00,SCT,,0.00,WeatherDisplay:10.37,2013-05-15 01:48:00,
2013-05-14 18:49:00,70.5,46.3,29.97,WSW,242,2.3,2.3,42,0.00,SCT,,0.00,WeatherDisplay:10.37,2013-05-15 01:49:00,
2013-05-14 18:50:00,70.6,46.4,29.97,SE,139,3.5,3.5,42,0.00,SCT,,0.00,WeatherDisplay:10.37,2013-05-15 01:50:00,
2013-05-14 18:52:00,70.6,46.4,29.98,WNW,291,4.6,4.6,42,0.00,SCT,,0.00,WeatherDisplay:10.37,2013-05-15 01:52:00,
2013-05-14 18:53:00,70.5,46.3,29.98,WNW,303,1.2,1.2,42,0.00,SCT,,0.00,WeatherDisplay:10.37,2013-05-15 01:53:00,
2013-05-14 18:55:00,70.3,46.1,29.98,WNW,301,1.0,1.0,42,0.00,SCT,,0.00,WeatherDisplay:10.37,2013-05-15 01:55:00,
2013-05-14 18:56:00,70.2,46.6,29.97,WNW,301,1.0,1.0,43,0.00,SCT,,0.00,WeatherDisplay:10.37,2013-05-15 01:56:00,
2013-05-14 18:57:00,70.1,46.6,29.97,SE,146,2.3,2.3,43,0.00,SCT,,0.00,WeatherDisplay:10.37,2013-05-15 01:57:00,
2013-05-14 18:58:00,70.0,46.5,29.98,SE,132,6.0,6.0,43,0.00,SCT,,0.00,WeatherDisplay:10.37,2013-05-15 01:58:00,
2013-05-14 19:01:00,70.0,46.5,29.97,ESE,118,3.5,3.5,43,0.00,SCT,,0.00,WeatherDisplay:10.37,2013-05-15 02:01:00,
2013-05-14 19:02:00,69.9,46.4,29.97,SE,146,4.0,4.0,43,0.00,SCT,,0.00,WeatherDisplay:10.37,2013-05-15 02:02:00,
2013-05-14 19:03:00,69.9,46.4,29.97,SE,144,5.8,5.8,43,0.00,SCT,,0.00,WeatherDisplay:10.37,2013-05-15 02:03:00,
2013-05-14 19:06:00,69.6,46.7,29.98,ESE,122,6.0,6.0,44,0.00,SCT,,0.00,WeatherDisplay:10.37,2013-05-15 02:06:00,
2013-05-14 19:07:00,69.5,46.0,29.98,SSW,199,5.8,5.8,43,0.00,SCT,,0.00,WeatherDisplay:10.37,2013-05-15 02:07:00,
2013-05-14 19:08:00,69.4,46.5,29.98,ESE,111,1.2,0.0,44,0.00,SCT,,0.00,WeatherDisplay:10.37,2013-05-15 02:08:00,
2013-05-14 19:09:00,69.4,46.5,29.98,SE,145,4.6,4.6,44,0.00,SCT,,0.00,WeatherDisplay:10.37,2013-05-15 02:09:00,
2013-05-14 19:11:00,69.2,46.4,29.98,East,101,3.5,3.5,44,0.00,SCT,,0.00,WeatherDisplay:10.37,2013-05-15 02:11:00,
2013-05-14 19:12:00,69.1,46.3,29.98,ESE,111,3.5,3.5,44,0.00,SCT,,0.00,WeatherDisplay:10.37,2013-05-15 02:12:00,
2013-05-14 19:13:00,69.1,46.3,29.98,SE,141,3.5,3.5,44,0.00,SCT,,0.00,WeatherDisplay:10.37,2013-05-15 02:13:00,
2013-05-14 19:15:00,69.0,46.2,29.98,SSE,150,3.5,3.5,44,0.00,SCT,,0.00,WeatherDisplay:10.37,2013-05-15 02:15:00,
2013-05-14 19:17:00,68.9,46.7,29.97,SE,124,3.5,3.5,45,0.00,SCT,,0.00,WeatherDisplay:10.37,2013-05-15 02:17:00,
2013-05-14 19:18:00,68.8,46.6,29.98,SE,145,5.8,5.8,45,0.00,SCT,,0.00,WeatherDisplay:10.37,2013-05-15 02:18:00,
2013-05-14 19:19:00,68.7,46.5,29.98,South,179,5.8,5.8,45,0.00,SCT,,0.00,WeatherDisplay:10.37,2013-05-15 02:19:00,
2013-05-14 19:20:00,68.6,46.4,29.98,SE,124,2.3,2.3,45,0.00,SCT,,0.00,WeatherDisplay:10.37,2013-05-15 02:20:00,
2013-05-14 19:22:00,68.5,46.9,29.98,SSW,208,11.5,11.5,46,0.00,SCT,,0.00,WeatherDisplay:10.37,2013-05-15 02:22:00,
2013-05-14 19:24:00,68.4,46.8,29.98,SSE,154,3.5,3.5,46,0.00,SCT,,0.00,WeatherDisplay:10.37,2013-05-15 02:24:00,
2013-05-14 19:25:00,68.4,46.8,29.98,SSE,151,1.0,12.0,46,0.00,SCT,,0.00,WeatherDisplay:10.37,2013-05-15 02:25:00,
2013-05-14 19:29:00,68.0,47.0,29.99,SE,141,10.4,10.4,47,0.00,SCT,,0.00,WeatherDisplay:10.37,2013-05-15 02:29:00,
2013-05-14 19:30:00,68.0,47.0,29.98,South,178,10.4,10.4,47,0.00,SCT,,0.00,WeatherDisplay:10.37,2013-05-15 02:30:00,
2013-05-14 19:32:00,67.8,46.8,29.98,SSW,198,1.2,1.2,47,0.00,SCT,,0.00,WeatherDisplay:10.37,2013-05-15 02:32:00,
2013-05-14 19:35:00,67.5,47.1,29.98,East,96,3.5,3.5,48,0.00,SCT,,0.00,WeatherDisplay:10.37,2013-05-15 02:35:00,
2013-05-14 19:36:00,67.5,47.1,29.98,SSE,150,5.8,5.8,48,0.00,SCT,,0.00,WeatherDisplay:10.37,2013-05-15 02:36:00,
2013-05-14 19:37:00,67.4,47.0,29.98,SSE,152,6.0,6.0,48,0.00,SCT,,0.00,WeatherDisplay:10.37,2013-05-15 02:37:00,
2013-05-14 19:40:00,67.1,47.3,29.98,SE,143,1.0,6.0,49,0.00,SCT,,0.00,WeatherDisplay:10.37,2013-05-15 02:40:00,
2013-05-14 19:41:00,67.0,47.2,29.99,SE,129,3.5,3.5,49,0.00,SCT,,0.00,WeatherDisplay:10.37,2013-05-15 02:41:00,
2013-05-14 19:42:00,66.9,47.1,29.98,SSE,148,2.3,2.3,49,0.00,SCT,,0.00,WeatherDisplay:10.37,2013-05-15 02:42:00,
2013-05-14 19:43:00,66.8,47.0,29.99,SSE,153,3.5,3.5,49,0.00,SCT,,0.00,WeatherDisplay:10.37,2013-05-15 02:43:00,
2013-05-14 19:45:00,66.7,47.5,29.99,ESE,118,4.6,4.6,50,0.00,SCT,,0.00,WeatherDisplay:10.37,2013-05-15 02:45:00,
2013-05-14 19:46:00,66.7,47.5,29.98,SE,134,6.0,6.0,50,0.00,SCT,,0.00,WeatherDisplay:10.37,2013-05-15 02:46:00,
2013-05-14 19:48:00,66.6,47.4,29.98,SE,139,6.9,6.9,50,0.00,SCT,,0.00,WeatherDisplay:10.37,2013-05-15 02:48:00,
2013-05-14 19:49:00,66.5,47.3,29.99,SSE,154,8.1,8.1,50,0.00,SCT,,0.00,WeatherDisplay:10.37,2013-05-15 02:49:00,
2013-05-14 19:50:00,66.2,47.5,29.99,SE,133,5.0,5.0,51,0.00,SCT,,0.00,WeatherDisplay:10.37,2013-05-15 02:50:00,
2013-05-14 19:52:00,66.1,47.4,29.99,ESE,120,5.8,5.8,51,0.00,SCT,,0.00,WeatherDisplay:10.37,2013-05-15 02:52:00,
2013-05-14 19:53:00,66.0,47.3,29.99,ESE,117,3.5,3.5,51,0.00,SCT,,0.00,WeatherDisplay:10.37,2013-05-15 02:53:00,
2013-05-14 19:54:00,66.0,47.3,29.99,WSW,241,2.3,2.3,51,0.00,SCT,,0.00,WeatherDisplay:10.37,2013-05-15 02:54:00,
2013-05-14 19:56:00,65.9,47.3,29.99,ESE,117,2.3,2.3,51,0.00,SCT,,0.00,WeatherDisplay:10.37,2013-05-15 02:56:00,
2013-05-14 19:57:00,65.8,47.2,29.99,SE,132,2.0,2.0,51,0.00,SCT,,0.00,WeatherDisplay:10.37,2013-05-15 02:57:00,
2013-05-14 19:58:00,65.5,46.9,29.99,SE,127,3.5,3.5,51,0.00,SCT,,0.00,WeatherDisplay:10.37,2013-05-15 02:58:00,
2013-05-14 19:59:00,65.4,46.8,29.99,SE,129,3.5,3.5,51,0.00,SCT,,0.00,WeatherDisplay:10.37,2013-05-15 02:59:00,
2013-05-14 20:01:00,65.5,47.4,30.00,SE,143,5.0,5.0,52,0.00,SCT,,0.00,WeatherDisplay:10.37,2013-05-15 03:01:00,
2013-05-14 20:02:00,65.5,47.4,29.99,South,186,3.5,3.5,52,0.00,SCT,,0.00,WeatherDisplay:10.37,2013-05-15 03:02:00,
2013-05-14 20:03:00,65.4,46.8,29.99,ESE,113,8.1,8.1,51,0.00,SCT,,0.00,WeatherDisplay:10.37,2013-05-15 03:03:00,
2013-05-14 20:04:00,65.2,47.1,29.99,SSE,147,2.3,2.3,52,0.00,SCT,,0.00,WeatherDisplay:10.37,2013-05-15 03:04:00,
2013-05-14 20:07:00,65.2,47.1,29.99,SSW,205,3.5,3.5,52,0.00,SCT,,0.00,WeatherDisplay:10.37,2013-05-15 03:07:00,
2013-05-14 20:08:00,65.2,47.1,29.99,WSW,254,3.5,3.5,52,0.00,SCT,,0.00,WeatherDisplay:10.37,2013-05-15 03:08:00,
2013-05-14 20:09:00,65.2,47.1,29.99,West,261,3.5,3.5,52,0.00,SCT,,0.00,WeatherDisplay:10.37,2013-05-15 03:09:00,
2013-05-14 20:12:00,65.1,46.5,29.99,SW,220,2.3,2.3,51,0.00,SCT,,0.00,WeatherDisplay:10.37,2013-05-15 03:12:00,
2013-05-14 20:13:00,65.0,46.9,30.00,SSE,154,3.5,3.5,52,0.00,SCT,,0.00,WeatherDisplay:10.37,2013-05-15 03:13:00,
2013-05-14 20:14:00,65.0,46.9,30.00,WSW,241,3.5,3.5,52,0.00,SCT,,0.00,WeatherDisplay:10.37,2013-05-15 03:14:00,
2013-05-14 20:15:00,64.9,46.8,30.00,WSW,243,3.5,3.5,52,0.00,SCT,,0.00,WeatherDisplay:10.37,2013-05-15 03:15:00,
2013-05-14 20:19:00,64.5,46.5,29.99,SSW,202,4.6,4.6,52,0.00,SCT,,0.00,WeatherDisplay:10.37,2013-05-15 03:19:00,
2013-05-14 20:20:00,64.4,46.9,29.99,SSW,211,0.0,5.0,53,0.00,SCT,,0.00,WeatherDisplay:10.37,2013-05-15 03:20:00,
2013-05-14 20:21:00,64.0,47.0,29.99,SE,124,3.5,3.5,54,0.00,SCT,,0.00,WeatherDisplay:10.37,2013-05-15 03:21:00,
2013-05-14 20:24:00,63.7,46.7,30.00,SE,126,3.0,3.0,54,0.00,SCT,,0.00,WeatherDisplay:10.37,2013-05-15 03:24:00,
2013-05-14 20:25:00,63.7,46.7,30.00,ESE,108,2.3,2.3,54,0.00,SCT,,0.00,WeatherDisplay:10.37,2013-05-15 03:25:00,
2013-05-14 20:26:00,63.8,46.8,30.00,ESE,114,3.5,3.5,54,0.00,SCT,,0.00,WeatherDisplay:10.37,2013-05-15 03:26:00,
2013-05-14 20:30:00,63.7,46.2,30.00,South,178,3.0,3.0,53,0.00,SCT,,0.00,WeatherDisplay:10.37,2013-05-15 03:30:00,
2013-05-14 20:31:00,63.6,46.6,30.00,SE,131,5.8,5.8,54,0.00,SCT,,0.00,WeatherDisplay:10.37,2013-05-15 03:31:00,
2013-05-14 20:32:00,63.6,46.6,30.00,SSW,208,5.8,5.8,54,0.00,SCT,,0.00,WeatherDisplay:10.37,2013-05-15 03:32:00,
2013-05-14 20:35:00,63.4,46.5,30.00,South,176,3.5,3.5,54,0.00,SCT,,0.00,WeatherDisplay:10.37,2013-05-15 03:35:00,
2013-05-14 20:37:00,63.4,46.5,30.00,SSE,159,3.5,3.5,54,0.00,SCT,,0.00,WeatherDisplay:10.37,2013-05-15 03:37:00,
2013-05-14 20:38:00,63.4,46.5,30.00,ESE,106,3.5,3.5,54,0.00,SCT,,0.00,WeatherDisplay:10.37,2013-05-15 03:38:00,
2013-05-14 20:40:00,63.2,46.3,30.00,SE,131,2.3,2.3,54,0.00,SCT,,0.00,WeatherDisplay:10.37,2013-05-15 03:40:00,
2013-05-14 20:42:00,63.2,46.3,30.00,ESE,113,3.0,3.0,54,0.00,SCT,,0.00,WeatherDisplay:10.37,2013-05-15 03:42:00,
2013-05-14 20:43:00,63.1,46.2,30.00,SE,136,3.5,3.5,54,0.00,SCT,,0.00,WeatherDisplay:10.37,2013-05-15 03:43:00,
2013-05-14 20:44:00,63.1,46.7,30.00,South,172,3.5,3.5,55,0.00,SCT,,0.00,WeatherDisplay:10.37,2013-05-15 03:44:00,
2013-05-14 20:47:00,63.0,46.6,30.00,SE,136,3.5,3.5,55,0.00,SCT,,0.00,WeatherDisplay:10.37,2013-05-15 03:47:00,
2013-05-14 20:48:00,63.0,46.6,30.00,SSE,151,1.2,1.2,55,0.00,SCT,,0.00,WeatherDisplay:10.37,2013-05-15 03:48:00,
2013-05-14 20:49:00,63.0,46.6,30.00,South,172,3.5,3.5,55,0.00,SCT,,0.00,WeatherDisplay:10.37,2013-05-15 03:49:00,
2013-05-14 20:53:00,62.7,46.3,30.00,ENE,60,3.5,3.5,55,0.00,SCT,,0.00,WeatherDisplay:10.37,2013-05-15 03:53:00,
2013-05-14 20:54:00,62.7,46.3,30.00,NE,54,3.5,3.5,55,0.00,SCT,,0.00,WeatherDisplay:10.37,2013-05-15 03:54:00,
2013-05-14 20:55:00,62.7,46.3,30.00,SSE,168,1.2,1.2,55,0.00,SCT,,0.00,WeatherDisplay:10.37,2013-05-15 03:55:00,
2013-05-14 20:59:00,62.6,45.7,30.00,SSE,154,8.1,8.1,54,0.00,SCT,,0.00,WeatherDisplay:10.37,2013-05-15 03:59:00,
2013-05-14 21:00:00,62.5,45.7,30.00,SSE,149,1.0,12.0,54,0.00,SCT,,0.00,WeatherDisplay:10.37,2013-05-15 04:00:00,
2013-05-14 21:01:00,62.4,45.5,30.00,SW,217,3.5,3.5,54,0.00,SCT,,0.00,WeatherDisplay:10.37,2013-05-15 04:01:00,
2013-05-14 21:02:00,62.3,45.4,30.01,South,188,3.5,3.5,54,0.00,SCT,,0.00,WeatherDisplay:10.37,2013-05-15 04:02:00,
2013-05-14 21:03:00,62.2,45.3,30.00,SE,135,5.8,5.8,54,0.00,SCT,,0.00,WeatherDisplay:10.37,2013-05-15 04:03:00,
2013-05-14 21:06:00,62.0,45.6,30.01,SSE,160,6.9,6.9,55,0.00,SCT,,0.00,WeatherDisplay:10.37,2013-05-15 04:06:00,
2013-05-14 21:07:00,61.9,45.5,30.00,SE,132,6.9,6.9,55,0.00,SCT,,0.00,WeatherDisplay:10.37,2013-05-15 04:07:00,
2013-05-14 21:09:00,61.9,45.5,30.00,SE,129,3.0,3.0,55,0.00,SCT,,0.00,WeatherDisplay:10.37,2013-05-15 04:09:00,
2013-05-14 21:10:00,61.9,46.0,30.01,SE,132,3.5,3.5,56,0.00,SCT,,0.00,WeatherDisplay:10.37,2013-05-15 04:10:00,
2013-05-14 21:12:00,62.0,45.6,30.00,SE,142,2.0,2.0,55,0.00,SCT,,0.00,WeatherDisplay:10.37,2013-05-15 04:12:00,
2013-05-14 21:13:00,62.0,45.6,30.01,SSE,148,1.2,1.2,55,0.00,SCT,,0.00,WeatherDisplay:10.37,2013-05-15 04:13:00,
2013-05-14 21:14:00,62.0,45.6,30.01,SSE,149,1.2,0.0,55,0.00,SCT,,0.00,WeatherDisplay:10.37,2013-05-15 04:14:00,
2013-05-14 21:17:00,61.9,45.5,30.01,ESE,113,3.5,3.5,55,0.00,SCT,,0.00,WeatherDisplay:10.37,2013-05-15 04:17:00,
2013-05-14 21:18:00,61.8,45.5,30.01,ESE,120,5.0,5.0,55,0.00,SCT,,0.00,WeatherDisplay:10.37,2013-05-15 04:18:00,
2013-05-14 21:20:00,61.8,45.5,30.01,SE,131,2.3,2.3,55,0.00,SCT,,0.00,WeatherDisplay:10.37,2013-05-15 04:20:00,
2013-05-14 21:23:00,61.7,45.4,30.01,SW,231,3.5,3.5,55,0.00,SCT,,0.00,WeatherDisplay:10.37,2013-05-15 04:23:00,
2013-05-14 21:25:00,61.7,45.4,30.01,ESE,122,1.2,1.2,55,0.00,SCT,,0.00,WeatherDisplay:10.37,2013-05-15 04:25:00,
2013-05-14 21:27:00,61.6,45.3,30.01,ESE,116,2.3,2.3,55,0.00,SCT,,0.00,WeatherDisplay:10.37,2013-05-15 04:27:00,
2013-05-14 21:28:00,61.7,45.4,30.02,SSE,167,3.5,3.5,55,0.00,SCT,,0.00,WeatherDisplay:10.37,2013-05-15 04:28:00,
2013-05-14 21:30:00,61.6,45.3,30.02,East,85,4.6,4.6,55,0.00,SCT,,0.00,WeatherDisplay:10.37,2013-05-15 04:30:00,
2013-05-14 21:33:00,61.5,45.2,30.02,SSW,202,1.2,1.2,55,0.00,SCT,,0.00,WeatherDisplay:10.37,2013-05-15 04:33:00,
2013-05-14 21:35:00,61.4,45.1,30.02,ESE,113,0.0,3.0,55,0.00,SCT,,0.00,WeatherDisplay:10.37,2013-05-15 04:35:00,
2013-05-14 21:36:00,61.3,45.0,30.02,ESE,122,0.0,0.0,55,0.00,SCT,,0.00,WeatherDisplay:10.37,2013-05-15 04:36:00,
2013-05-14 21:39:00,61.3,45.5,30.02,SW,219,1.2,0.0,56,0.00,SCT,,0.00,WeatherDisplay:10.37,2013-05-15 04:39:00,
2013-05-14 21:41:00,61.3,45.0,30.02,ESE,122,6.9,6.9,55,0.00,SCT,,0.00,WeatherDisplay:10.37,2013-05-15 04:41:00,
2013-05-14 21:42:00,61.3,45.5,30.02,SE,130,5.8,5.8,56,0.00,SCT,,0.00,WeatherDisplay:10.37,2013-05-15 04:42:00,
2013-05-14 21:45:00,61.1,45.3,30.02,SE,137,0.0,6.0,56,0.00,SCT,,0.00,WeatherDisplay:10.37,2013-05-15 04:45:00,
2013-05-14 21:46:00,61.0,45.2,30.02,SE,131,1.2,0.0,56,0.00,SCT,,0.00,WeatherDisplay:10.37,2013-05-15 04:46:00,
2013-05-14 21:47:00,61.0,45.2,30.02,SE,131,1.2,0.0,56,0.00,SCT,,0.00,WeatherDisplay:10.37,2013-05-15 04:47:00,
2013-05-14 21:51:00,61.0,45.2,30.03,SE,129,1.0,0.0,56,0.00,SCT,,0.00,WeatherDisplay:10.37,2013-05-15 04:51:00,
2013-05-14 21:52:00,61.0,44.7,30.02,ESE,108,0.0,0.3,55,0.00,SCT,,0.00,WeatherDisplay:10.37,2013-05-15 04:52:00,
2013-05-14 21:53:00,61.0,45.2,30.02,ESE,108,0.0,0.0,56,0.00,SCT,,0.00,WeatherDisplay:10.37,2013-05-15 04:53:00,
2013-05-14 21:57:00,61.0,44.7,30.03,SSE,148,0.0,0.4,55,0.00,SCT,,0.00,WeatherDisplay:10.37,2013-05-15 04:57:00,
2013-05-14 21:58:00,60.9,45.1,30.02,SSE,148,0.0,0.0,56,0.00,SCT,,0.00,WeatherDisplay:10.37,2013-05-15 04:58:00,
2013-05-14 21:59:00,60.8,45.0,30.03,ENE,74,0.0,0.1,56,0.00,SCT,,0.00,WeatherDisplay:10.37,2013-05-15 04:59:00,
2013-05-14 22:02:00,60.9,45.1,30.02,NE,45,0.0,0.0,56,0.00,SCT,,0.00,WeatherDisplay:10.37,2013-05-15 05:02:00,
2013-05-14 22:03:00,60.9,44.6,30.03,NE,45,0.0,0.0,55,0.00,SCT,,0.00,WeatherDisplay:10.37,2013-05-15 05:03:00,
2013-05-14 22:04:00,60.9,44.6,30.03,NE,45,0.0,0.0,55,0.00,SCT,,0.00,WeatherDisplay:10.37,2013-05-15 05:04:00,
2013-05-14 22:07:00,60.9,44.6,30.03,East,98,1.2,1.2,55,0.00,SCT,,0.00,WeatherDisplay:10.37,2013-05-15 05:07:00,
2013-05-14 22:08:00,60.9,44.6,30.03,ESE,114,1.2,1.2,55,0.00,SCT,,0.00,WeatherDisplay:10.37,2013-05-15 05:08:00,
2013-05-14 22:09:00,60.8,44.5,30.03,SW,216,1.2,1.2,55,0.00,SCT,,0.00,WeatherDisplay:10.37,2013-05-15 05:09:00,
2013-05-14 22:10:00,60.8,44.5,30.03,East,81,0.0,5.0,55,0.00,SCT,,0.00,WeatherDisplay:10.37,2013-05-15 05:10:00,
2013-05-14 22:13:00,60.3,44.5,30.03,South,175,2.3,2.3,56,0.00,SCT,,0.00,WeatherDisplay:10.37,2013-05-15 05:13:00,
2013-05-14 22:14:00,60.2,44.9,30.03,SSE,151,4.6,4.6,57,0.00,SCT,,0.00,WeatherDisplay:10.37,2013-05-15 05:14:00,
2013-05-14 22:15:00,60.1,44.8,30.03,East,99,4.6,4.6,57,0.00,SCT,,0.00,WeatherDisplay:10.37,2013-05-15 05:15:00,
2013-05-14 22:16:00,60.1,44.8,30.03,East,100,3.5,3.5,57,0.00,SCT,,0.00,WeatherDisplay:10.37,2013-05-15 05:16:00,
2013-05-14 22:18:00,60.0,45.2,30.03,ESE,105,3.0,3.0,58,0.00,SCT,,0.00,WeatherDisplay:10.37,2013-05-15 05:18:00,
2013-05-14 22:20:00,59.8,45.0,30.03,SE,128,0.0,0.0,58,0.00,SCT,,0.00,WeatherDisplay:10.37,2013-05-15 05:20:00,
2013-05-14 22:21:00,59.9,45.1,30.03,SSE,153,1.2,1.2,58,0.00,SCT,,0.00,WeatherDisplay:10.37,2013-05-15 05:21:00,
2013-05-14 22:23:00,59.8,45.0,30.03,ESE,111,1.2,1.2,58,0.00,SCT,,0.00,WeatherDisplay:10.37,2013-05-15 05:23:00,
2013-05-14 22:25:00,59.8,45.0,30.03,ESE,110,0.0,4.0,58,0.00,SCT,,0.00,WeatherDisplay:10.37,2013-05-15 05:25:00,
2013-05-14 22:26:00,59.9,45.1,30.03,SE,128,2.3,2.3,58,0.00,SCT,,0.00,WeatherDisplay:10.37,2013-05-15 05:26:00,
2013-05-14 22:27:00,59.9,45.1,30.03,SSW,192,3.0,3.0,58,0.00,SCT,,0.00,WeatherDisplay:10.37,2013-05-15 05:27:00,
2013-05-14 22:29:00,59.7,44.9,30.03,ESE,123,4.6,4.6,58,0.00,SCT,,0.00,WeatherDisplay:10.37,2013-05-15 05:29:00,
2013-05-14 22:30:00,59.7,44.9,30.03,SE,141,2.0,2.0,58,0.00,SCT,,0.00,WeatherDisplay:10.37,2013-05-15 05:30:00,
2013-05-14 22:32:00,59.7,44.9,30.03,SE,135,4.6,4.6,58,0.00,SCT,,0.00,WeatherDisplay:10.37,2013-05-15 05:32:00,
2013-05-14 22:33:00,59.7,44.9,30.03,SSE,156,2.3,2.3,58,0.00,SCT,,0.00,WeatherDisplay:10.37,2013-05-15 05:33:00,
2013-05-14 22:34:00,59.7,44.9,30.03,SSE,156,0.0,0.0,58,0.00,SCT,,0.00,WeatherDisplay:10.37,2013-05-15 05:34:00,
2013-05-14 22:36:00,59.7,44.9,30.03,SW,218,3.5,3.5,58,0.00,SCT,,0.00,WeatherDisplay:10.37,2013-05-15 05:36:00,
2013-05-14 22:37:00,59.6,44.3,30.03,SW,218,3.5,3.5,57,0.00,SCT,,0.00,WeatherDisplay:10.37,2013-05-15 05:37:00,
2013-05-14 22:39:00,59.5,44.7,30.03,ENE,61,6.9,6.9,58,0.00,SCT,,0.00,WeatherDisplay:10.37,2013-05-15 05:39:00,
2013-05-14 22:41:00,59.5,44.7,30.03,ESE,118,3.5,3.5,58,0.00,SCT,,0.00,WeatherDisplay:10.37,2013-05-15 05:41:00,
2013-05-14 22:42:00,59.5,44.7,30.03,ENE,57,3.5,3.5,58,0.00,SCT,,0.00,WeatherDisplay:10.37,2013-05-15 05:42:00,
2013-05-14 22:43:00,59.4,44.6,30.03,NE,56,3.5,3.5,58,0.00,SCT,,0.00,WeatherDisplay:10.37,2013-05-15 05:43:00,
2013-05-14 22:44:00,59.3,44.5,30.03,East,97,3.5,3.5,58,0.00,SCT,,0.00,WeatherDisplay:10.37,2013-05-15 05:44:00,
2013-05-14 22:48:00,59.1,44.8,30.03,SE,124,3.5,3.5,59,0.00,SCT,,0.00,WeatherDisplay:10.37,2013-05-15 05:48:00,
2013-05-14 22:49:00,59.0,44.7,30.03,ENE,73,3.5,3.5,59,0.00,SCT,,0.00,WeatherDisplay:10.37,2013-05-15 05:49:00,
2013-05-14 22:50:00,58.8,44.5,30.03,ENE,73,1.2,1.2,59,0.00,SCT,,0.00,WeatherDisplay:10.37,2013-05-15 05:50:00,
2013-05-14 22:51:00,58.8,44.5,30.03,SW,216,5.8,5.8,59,0.00,SCT,,0.00,WeatherDisplay:10.37,2013-05-15 05:51:00,
2013-05-14 22:53:00,58.8,44.5,30.03,SSW,193,2.3,2.3,59,0.00,SCT,,0.00,WeatherDisplay:10.37,2013-05-15 05:53:00,
2013-05-14 22:54:00,58.8,44.5,30.03,South,172,1.2,1.2,59,0.00,SCT,,0.00,WeatherDisplay:10.37,2013-05-15 05:54:00,
2013-05-14 22:55:00,58.8,44.5,30.03,SE,141,1.2,1.2,59,0.00,SCT,,0.00,WeatherDisplay:10.37,2013-05-15 05:55:00,
2013-05-14 22:57:00,58.8,44.9,30.03,SE,133,4.6,4.6,60,0.00,SCT,,0.00,WeatherDisplay:10.37,2013-05-15 05:57:00,
2013-05-14 22:59:00,58.7,44.4,30.04,SSE,147,3.5,3.5,59,0.00,SCT,,0.00,WeatherDisplay:10.37,2013-05-15 05:59:00,
2013-05-14 23:00:00,58.6,44.8,30.03,SSE,147,2.3,2.3,60,0.00,SCT,,0.00,WeatherDisplay:10.37,2013-05-15 06:00:00,
2013-05-14 23:04:00,58.6,44.8,30.04,SE,135,3.5,3.5,60,0.00,SCT,,0.00,WeatherDisplay:10.37,2013-05-15 06:04:00,
2013-05-14 23:05:00,58.6,44.8,30.04,SE,135,1.2,1.2,60,0.00,SCT,,0.00,WeatherDisplay:10.37,2013-05-15 06:05:00,
2013-05-14 23:09:00,58.5,44.2,30.04,SE,124,3.5,3.5,59,0.00,SCT,,0.00,WeatherDisplay:10.37,2013-05-15 06:09:00,
2013-05-14 23:10:00,58.5,44.2,30.04,SE,145,1.0,5.0,59,0.00,SCT,,0.00,WeatherDisplay:10.37,2013-05-15 06:10:00,
2013-05-14 23:11:00,58.4,44.6,30.04,SE,130,3.5,3.5,60,0.00,SCT,,0.00,WeatherDisplay:10.37,2013-05-15 06:11:00,
2013-05-14 23:15:00,58.4,44.6,30.04,SE,124,3.5,3.5,60,0.00,SCT,,0.00,WeatherDisplay:10.37,2013-05-15 06:15:00,
2013-05-14 23:16:00,58.4,44.6,30.04,SE,124,3.5,3.5,60,0.00,SCT,,0.00,WeatherDisplay:10.37,2013-05-15 06:16:00,
2013-05-14 23:17:00,58.3,44.5,30.04,East,82,8.1,8.1,60,0.00,SCT,,0.00,WeatherDisplay:10.37,2013-05-15 06:17:00,
2013-05-14 23:21:00,58.1,44.7,30.04,ESE,112,4.0,4.0,61,0.00,SCT,,0.00,WeatherDisplay:10.37,2013-05-15 06:21:00,
2013-05-14 23:22:00,58.0,44.6,30.04,SE,126,3.5,3.5,61,0.00,SCT,,0.00,WeatherDisplay:10.37,2013-05-15 06:22:00,
2013-05-14 23:24:00,57.9,44.5,30.04,SE,124,3.0,3.0,61,0.00,SCT,,0.00,WeatherDisplay:10.37,2013-05-15 06:24:00,
2013-05-14 23:26:00,57.9,44.1,30.04,SE,126,3.5,3.5,60,0.00,SCT,,0.00,WeatherDisplay:10.37,2013-05-15 06:26:00,
2013-05-14 23:28:00,57.9,44.5,30.04,East,79,3.5,3.5,61,0.00,SCT,,0.00,WeatherDisplay:10.37,2013-05-15 06:28:00,
2013-05-14 23:29:00,57.8,44.4,30.04,ESE,117,3.5,3.5,61,0.00,SCT,,0.00,WeatherDisplay:10.37,2013-05-15 06:29:00,
2013-05-14 23:31:00,57.8,44.4,30.04,South,179,3.5,3.5,61,0.00,SCT,,0.00,WeatherDisplay:10.37,2013-05-15 06:31:00,
2013-05-14 23:32:00,57.8,44.4,30.04,SSE,158,3.5,3.5,61,0.00,SCT,,0.00,WeatherDisplay:10.37,2013-05-15 06:32:00,
2013-05-14 23:34:00,57.8,44.4,30.04,SE,144,2.3,2.3,61,0.00,SCT,,0.00,WeatherDisplay:10.37,2013-05-15 06:34:00,
2013-05-14 23:35:00,57.8,44.4,30.04,SE,131,1.0,5.0,61,0.00,SCT,,0.00,WeatherDisplay:10.37,2013-05-15 06:35:00,
2013-05-14 23:36:00,57.7,44.3,30.04,ESE,116,4.6,4.6,61,0.00,SCT,,0.00,WeatherDisplay:10.37,2013-05-15 06:36:00,
2013-05-14 23:38:00,57.7,44.3,30.04,ESE,116,3.5,3.5,61,0.00,SCT,,0.00,WeatherDisplay:10.37,2013-05-15 06:38:00,
2013-05-14 23:40:00,57.7,44.3,30.04,ESE,114,2.3,0.0,61,0.00,SCT,,0.00,WeatherDisplay:10.37,2013-05-15 06:40:00,
2013-05-14 23:41:00,57.7,44.3,30.04,South,179,5.8,5.8,61,0.00,SCT,,0.00,WeatherDisplay:10.37,2013-05-15 06:41:00,
2013-05-14 23:43:00,57.6,44.2,30.04,ENE,59,5.8,5.8,61,0.00,SCT,,0.00,WeatherDisplay:10.37,2013-05-15 06:43:00,
2013-05-14 23:47:00,57.6,44.2,30.04,NE,43,1.2,1.2,61,0.00,SCT,,0.00,WeatherDisplay:10.37,2013-05-15 06:47:00,
2013-05-14 23:48:00,57.5,44.1,30.04,ENE,70,4.6,4.6,61,0.00,SCT,,0.00,WeatherDisplay:10.37,2013-05-15 06:48:00,
2013-05-14 23:49:00,57.5,44.1,30.04,SE,130,4.6,4.6,61,0.00,SCT,,0.00,WeatherDisplay:10.37,2013-05-15 06:49:00,
2013-05-14 23:52:00,57.4,44.5,30.04,ENE,68,3.5,3.5,62,0.00,SCT,,0.00,WeatherDisplay:10.37,2013-05-15 06:52:00,
2013-05-14 23:53:00,57.4,44.5,30.04,NE,49,3.5,3.5,62,0.00,SCT,,0.00,WeatherDisplay:10.37,2013-05-15 06:53:00,
2013-05-14 23:54:00,57.4,44.5,30.04,SSW,209,3.0,3.0,62,0.00,SCT,,0.00,WeatherDisplay:10.37,2013-05-15 06:54:00,
2013-05-14 23:58:00,57.3,44.4,30.04,East,89,2.3,0.0,62,0.00,SCT,,0.00,WeatherDisplay:10.37,2013-05-15 06:58:00,
2013-05-14 23:59:00,57.3,44.4,30.04,East,89,1.0,0.0,62,0.00,SCT,,0.00,WeatherDisplay:10.37,2013-05-15 06:59:00,